[{"header": {"dx": 0.06612293990616946, "dy": 0.0552356325346848, "nx": 98, "ny": 59, "la1": 35.046912555036876, "la2": 31.78801023549047, "lo1": -121.43107172385933, "lo2": -114.95102361305473, "refTime": "2026041715", "parameterCategory": 1, "parameterNumber": 2}, "data": [-5.04, -8.2, -8.2, -8.87, -9.67, -7.4, -8.28, -9.39, -9.12, -7.59, -7.36, -8.05, -11.53, -12.3, -11.84, -11.18, -11.28, -10.75, -11.4, -12.27, -12.96, -12.96, -11.51, -11.02, -10.38, -10.4, -11.71, -11.87, -12.07, -12.07, -12.52, 0.0, 0.0, 5.0, 7.27, 8.8, 9.39, 9.39, 0.0, 0.0, -9.64, -11.18, -11.51, -12.52, -15.65, -18.14, -21.2, -22.39, -15.01, -9.8, -10.12, -12.27, -12.65, -13.02, -11.06, -11.06, -13.02, -11.06, -11.06, 0.0, 0.0, 15.65, 15.2, 15.2, 10.75, 0.0, 0.0, 0.0, 0.0, 0.0, 5.09, 8.68, 11.06, 11.06, 11.06, 12.52, 10.43, 10.12, 9.44, 8.18, 7.93, 9.48, 9.17, 9.77, 9.42, 9.97, 11.71, 11.18, 10.38, 6.2, 2.81, 0.0, -1.23, -2.15, -2.72, -2.64, -2.47, -2.39, -5.04, -7.22, -7.22, -7.04, -7.8, -7.6, -8.28, -9.39, -9.12, -7.59, -6.2, -8.85, -11.16, -11.2, -12.96, -12.07, -10.73, -12.07, -12.07, -11.62, -13.41, -12.96, -12.96, -12.58, -9.96, -10.0, -11.28, -12.07, -12.07, -11.87, -12.79, -6.2, 0.0, 0.0, -5.69, -8.94, -7.47, -7.44, -9.39, -10.28, -12.52, -13.31, -12.86, -15.2, -18.85, -21.77, -22.12, -16.74, -11.53, -11.52, -10.43, -10.75, -9.12, -9.12, -10.75, -9.39, -11.06, -8.43, -7.0, 0.0, 0.0, 0.0, 10.75, 10.75, 10.75, 7.0, 0.0, 0.0, 0.0, 7.2, 11.7, 13.39, 12.87, 12.16, 10.75, 10.43, 9.22, 10.12, 9.44, 8.18, 7.93, 9.48, 9.17, 9.77, 9.42, 9.97, 11.71, 11.18, 10.38, 6.2, 2.81, 0.0, -1.23, -2.15, -2.72, -2.64, -2.47, -2.39, -2.27, -5.04, -7.22, -7.04, -7.04, -7.8, -8.51, -9.66, -5.64, -4.66, -3.93, -7.19, -9.8, -9.17, -8.22, -11.62, -11.4, -11.03, -11.21, -12.3, -11.4, -12.52, -12.52, -13.41, -13.86, -10.73, -10.73, -10.73, -11.18, -11.62, -10.43, -4.81, -6.4, -10.84, -8.43, -8.22, -6.79, -6.32, -8.54, -11.4, -11.8, -14.71, -17.88, -20.16, -20.75, -18.76, -14.78, -10.91, -11.33, -9.73, -9.73, -9.73, -8.43, -9.49, -9.22, -10.75, -9.12, -11.06, -8.68, -4.95, 0.0, 0.0, 0.0, 0.0, 0.0, 0.0, 7.0, 11.06, 11.06, 16.09, 14.39, 13.39, 12.52, 10.75, 9.22, 8.18, 6.8, 8.83, 8.58, 6.6, 5.02, 6.0, 7.54, 7.73, 8.22, 9.97, 10.96, 10.96, 10.6, 9.5, 8.29, 4.54, 0.0, -2.5, -4.24, -4.38, -4.65, -4.21, 0.0, -2.27, -5.04, -4.91, -4.91, -5.51, -6.31, -6.14, -2.57, -2.09, -2.02, -4.38, -7.93, -6.94, -10.8, -11.03, -9.3, -9.66, -8.22, -5.4, -7.9, -10.0, -11.18, -11.18, -12.07, -12.96, -10.28, -9.83, -9.83, -11.18, 0.0, -6.2, -15.34, -15.43, -11.5, -9.6, -8.55, -7.59, -10.19, -13.37, -16.49, -19.22, -19.57, -16.7, -14.11, -12.39, -11.53, -10.77, -10.43, -9.6, -8.85, -8.83, -7.32, -8.18, -7.59, -8.85, -9.12, -11.06, -8.68, -11.06, -6.8, 0.0, 0.0, 0.0, 0.0, 0.0, 0.0, 11.06, 17.43, 17.88, 16.99, 13.02, 12.52, 11.52, 10.12, 8.05, 5.99, 6.8, 6.8, 5.15, 3.53, 3.85, 4.81, 4.72, 5.0, 6.97, 10.8, 11.03, 9.48, 11.06, 10.73, 5.37, 0.0, -6.6, -6.0, -5.45, -5.36, -4.49, 0.0, 0.0, -2.59, -4.91, -4.91, -5.65, -2.87, -2.79, 0.0, 0.0, 0.0, -2.72, -10.12, -11.6, -12.07, -8.53, -5.2, -4.48, -5.98, -4.48, -0.0, -0.0, -0.0, -0.0, -7.59, -8.53, -8.85, -12.07, -7.9, -4.6, -0.0, -10.6, -11.53, -12.45, -14.3, -14.3, -14.99, -12.39, -14.94, -17.43, -16.76, -15.2, -13.41, -13.75, -13.44, -12.66, -12.13, -10.86, -10.43, -9.89, -9.6, -8.31, -7.93, -8.18, -9.22, -10.43, -12.16, -12.52, -13.02, -13.59, -10.43, -10.12, -10.12, -6.6, -3.58, 0.0, 0.0, 0.0, -12.96, -14.22, 0.0, 9.92, 15.72, 15.59, 13.58, 9.17, 8.31, 6.95, 5.15, 5.55, 4.1, 3.14, 2.93, 3.21, 2.71, 3.19, 6.7, 8.22, 10.39, 10.25, 8.47, 4.95, 0.0, -9.48, -8.1, -6.51, -5.36, -3.96, 1.66, 0.0, 0.0, -2.53, -2.53, -2.94, -2.87, 0.0, 0.0, 2.21, 0.0, -4.52, -14.3, -12.96, -12.52, -5.4, -2.93, -2.37, -4.48, -6.7, -5.2, -0.0, -0.0, 4.24, -0.0, -0.0, -0.0, -5.4, -9.17, -6.7, -5.9, -9.2, -10.23, -10.69, -11.71, -13.63, -13.15, -13.59, -10.75, -12.27, -11.39, -13.7, -13.8, -14.22, -14.16, -13.99, -13.19, -11.17, -10.12, -10.12, -9.8, -9.8, -8.66, -8.94, -11.52, -12.65, -13.19, -14.31, -14.75, -13.99, -13.86, -9.48, -8.85, -7.82, -8.28, -6.31, -4.23, -6.14, -8.43, -9.0, -4.75, 0.0, 5.04, 12.02, 13.92, 12.45, 8.83, 6.87, 4.81, 4.43, 4.12, 3.42, 2.44, 1.77, 2.08, 2.08, 3.36, 7.6, 9.46, 7.4, 4.62, 1.94, 0.0, -5.8, -6.43, -6.0, -4.43, -3.96, 3.28, 1.82, 0.0, 0.0, 0.0, 0.0, 0.0, 0.0, 2.34, 2.21, 0.0, 0.0, 14.3, 12.96, -0.0, -5.2, -3.82, -0.0, -5.6, -8.53, -12.07, 13.41, -0.0, -0.0, -0.0, -0.0, -0.0, -5.4, -3.96, -6.44, -7.9, -9.04, -9.77, -9.35, -10.84, -12.3, -11.2, -10.73, 0.0, 2.49, -7.51, -11.33, -12.27, -12.37, -12.22, -12.65, -13.8, -12.65, -9.8, -9.8, -10.12, -9.8, -10.12, -12.65, -13.28, -13.59, -14.03, -14.3, -14.3, -13.86, -13.41, -11.16, -9.49, -8.93, -8.21, -6.52, -5.37, -4.42, -5.81, -5.65, -4.62, -2.78, 0.0, 2.52, 6.53, 8.13, 8.43, 7.11, 6.51, 6.0, 5.4, 4.36, 2.72, 0.89, 1.89, 2.95, 4.95, 6.77, 6.08, 4.34, 1.37, 0.0, -4.95, -8.38, -7.11, -5.36, -3.96, -3.81, 4.34, 3.51, 1.97, 0.0, 0.0, 0.0, 0.0, 2.4, 2.34, 2.21, 0.0, 0.0, 0.0, 13.41, 9.8, -0.0, -0.0, -0.0, -0.0, 12.52, 12.52, 12.52, 12.96, 13.86, 13.86, 12.07, -12.07, -0.0, -5.2, -3.53, -7.9, -10.4, -11.18, -10.62, -10.38, -9.81, -9.43, -7.9, -2.45, 2.82, 0.0, -9.42, -9.48, -9.5, -9.71, -11.38, -12.52, -13.8, -10.43, -10.12, -8.85, -10.73, -12.39, -12.87, -13.59, -13.59, -13.86, -13.86, -13.41, -12.96, -12.52, -10.73, -9.49, -7.76, -7.98, -8.43, -6.69, -4.3, -4.66, -4.5, -3.2, -1.41, 0.0, 0.0, 1.08, 3.09, 3.76, 5.45, 6.67, 7.93, 8.46, 6.24, 4.91, 3.07, 1.58, 1.86, 4.71, 5.65, 3.01, 0.0, 0.0, -3.49, -7.44, -8.05, -6.51, -4.28, -3.82, -2.72, 5.65, 4.7, 3.51, 1.97, 2.22, 2.53, 2.47, 4.67, 4.01, 3.9, 1.89, 0.0, 0.0, 0.0, 13.41, -0.0, -0.0, -0.0, -0.0, -0.0, -0.0, -5.6, -5.8, -0.0, 13.41, 12.52, -9.83, -0.0, -5.4, -5.95, -9.67, -11.45, -12.14, -10.8, -9.48, -8.72, -8.93, -6.87, -4.58, 0.0, 0.0, -11.2, -9.77, -8.83, -10.12, -9.8, -12.11, -12.01, -10.3, -9.12, -10.43, -9.17, -11.16, -13.15, -13.44, -13.86, -13.86, -12.96, -12.52, -12.52, -12.27, -13.59, -10.75, -9.77, -10.05, -10.87, -9.67, -5.98, -3.58, -3.58, 0.0, 0.0, 2.05, 1.73, 1.47, 1.3, 2.28, 2.92, 5.81, 7.97, 9.17, 7.59, 7.36, 6.28, 4.1, 1.78, 0.0, -7.4, -5.09, -15.2, -2.13, -3.14, -6.3, -6.9, -6.42, -3.96, -2.71, -2.53, 5.13, 5.65, 5.14, 3.88, 4.34, 4.34, 4.23, 5.96, 5.65, 5.65, 3.79, 3.69, 2.28, -3.14, -14.3, -6.0, -4.38, -0.0, -6.2, -5.8, -8.85, -8.85, -5.8, -0.0, -0.0, -12.07, -0.0, -0.0, -9.48, -11.45, -11.2, -14.3, -12.39, -9.66, -9.67, -10.4, -9.2, -5.82, -6.45, -3.96, -4.48, -11.2, -11.45, -9.67, -9.0, -9.96, -10.63, -10.99, -11.06, -9.09, -8.85, -10.43, -11.9, -13.44, -13.86, -14.3, -13.75, -12.83, -12.52, -12.52, -13.7, -15.36, -14.51, -12.87, -11.38, -12.33, -12.64, -11.38, 13.86, 14.3, 10.43, 11.06, 11.38, 11.38, 8.68, 7.34, 4.58, 3.68, 4.1, 4.66, 7.18, 9.17, 10.22, 9.67, 7.89, 6.0, 3.81, -0.0, 3.47, 4.1, 0.0, -1.77, -2.72, -5.43, -5.8, -3.44, -1.83, -1.65, 6.26, 5.51, 6.11, 5.14, 5.65, 5.65, 6.12, 7.4, 7.4, 5.09, 4.95, 5.34, 5.64, 0.0, -15.65, -13.57, -13.19, -14.3, -10.43, -10.43, -14.84, -14.84, -13.19, -11.2, -9.17, -7.59, -7.27, -0.0, -7.27, -12.52, -12.07, 9.83, 9.83, -8.18, -8.34, -9.46, -8.22, -7.44, -7.72, -7.51, -9.17, -10.73, -9.97, -10.35, -9.86, -10.04, -10.63, -10.81, -10.12, -10.73, -12.0, -15.07, -15.61, -15.99, -16.09, -16.46, -16.15, -13.72, -11.18, -12.72, -14.95, -15.33, -13.23, -12.87, -14.94, -17.88, -18.24, -8.0, 4.81, 9.17, 13.44, 14.75, 15.93, 14.79, 12.89, 10.02, 7.26, 6.48, 5.5, 5.11, 4.54, 7.8, 8.93, 11.52, 11.86, 12.27, 14.28, 15.2, 14.19, 13.28, 12.52, 2.45, 0.0, -3.29, -4.71, -3.83, -2.41, -2.47, 6.87, 6.71, 6.11, 6.64, 6.64, 7.26, 7.08, 6.72, 6.72, 6.72, 5.65, 5.49, 4.95, 0.0, -15.2, -14.75, -12.96, -12.52, -13.41, -13.86, -14.3, -14.75, -14.3, -13.99, -11.99, -11.2, -12.07, -3.8, -7.59, -10.73, -10.0, 10.73, -0.0, -9.2, -10.18, -9.2, -8.38, -8.69, -9.08, -9.53, -10.19, -10.04, -9.97, -10.4, -10.18, -9.66, -11.45, -11.5, -11.6, -12.03, -13.02, -15.27, -17.81, -19.41, -19.22, -19.22, -19.99, -18.52, -12.07, -11.09, -12.64, -12.96, -12.33, -13.39, -15.07, -19.07, -22.05, -16.12, -0.0, 9.42, 11.8, 13.15, 14.6, 15.2, 12.14, 9.17, 8.69, 9.8, 9.2, 7.88, 5.78, 5.09, 7.18, 11.45, 13.84, 16.69, 16.19, 14.69, 14.6, 13.8, 12.42, 9.97, 7.26, 3.68, -1.13, -3.14, -3.95, -3.1, 7.8, 7.31, 6.71, 7.4, 8.0, 8.0, 7.8, 8.25, 8.03, 6.54, 5.65, 5.49, 6.16, 7.2, 0.0, -16.54, -15.65, -13.19, -13.86, -13.86, -14.3, -14.75, -15.2, -14.31, -14.03, -13.59, -13.15, -11.6, -10.8, -9.83, -10.84, -11.18, -9.6, -8.82, -9.75, -10.2, -8.99, -9.77, -9.16, -9.16, -9.67, -9.86, -9.7, -7.87, -9.75, -10.41, -11.46, -11.45, -12.3, -12.33, -11.36, -12.33, -12.99, -13.34, -14.75, -15.91, -19.34, -22.8, -11.38, -3.82, -8.53, -10.76, -13.24, -12.87, -15.72, -17.66, -19.99, -23.75, -24.59, 25.03, 19.99, 18.79, 14.11, 11.62, 9.42, 9.97, 11.03, 10.69, 10.77, 10.33, 8.64, 7.4, 6.45, 5.81, 10.87, 15.02, 17.08, 16.38, 14.94, 13.75, 13.44, 11.03, 9.7, 9.97, 7.51, 0.0, -2.72, -3.17, 7.8, 7.31, 8.0, 8.56, 8.56, 9.2, 8.97, 8.74, 8.25, 6.72, 5.65, 5.49, 5.49, 7.2, 5.23, 0.0, -12.33, -15.19, -11.38, -11.06, -15.2, -15.2, -15.2, -15.2, -15.65, -15.2, -15.05, -14.6, -13.72, -12.79, -10.73, -10.52, -10.84, -9.33, -9.33, -9.83, -9.54, -9.2, -9.2, -9.2, -9.2, -8.99, -9.2, -8.55, -9.83, -7.27, -6.64, -10.0, -11.62, -12.52, -12.27, -11.45, -11.21, -9.66, -9.77, -9.36, -13.27, -13.59, 0.0, 0.0, -3.65, -8.29, -9.92, -11.06, -11.7, -12.71, -14.33, -14.03, -15.17, -5.53, 0.0, 21.2, 17.39, 9.4, 9.52, 11.52, 11.7, 10.89, 9.74, 9.74, 11.29, 10.33, 7.76, 6.43, 6.27, 10.08, 13.18, 15.07, 14.67, 14.79, 13.35, 10.58, 10.4, 10.87, 11.5, 6.0, 0.0, -1.83, 8.2, 7.8, 8.48, 8.0, 8.56, 8.78, 9.2, 8.97, 7.6, 8.03, 6.54, 4.95, 5.65, 6.34, 8.51, 5.51, 0.0, -7.8, -7.8, -12.01, -14.79, -16.09, -15.65, -15.65, -15.65, -15.65, -15.2, -14.75, -14.3, -13.67, -12.35, -9.75, -10.84, -10.28, -10.28, -10.28, -10.52, -8.8, -10.0, -8.6, -9.4, -10.18, -9.64, -9.83, -9.83, -4.4, -0.0, -3.25, -3.39, -5.0, -10.4, -10.0, -7.59, -0.0, -0.0, 10.73, -9.97, -7.26, -2.42, 0.0, -0.92, -4.81, -7.13, -7.36, -8.18, -10.75, -11.7, -11.06, -10.3, -14.22, -9.2, 12.87, 14.54, 8.37, 8.59, 9.92, 9.36, 9.2, 8.74, 9.42, 10.7, 12.01, 10.47, 8.49, 7.38, 6.09, 8.22, 10.83, 11.91, 13.38, 14.33, 11.31, 9.89, 10.41, 10.3, 3.14, 0.0, 0.0, 8.2, 8.65, 8.48, 9.01, 9.01, 9.84, 9.6, 9.6, 8.74, 7.4, 6.54, 5.09, 5.09, 6.72, 6.69, 6.31, 0.0, 0.0, -5.65, -12.33, -15.59, -16.99, -16.54, -16.09, -15.65, -15.65, -15.2, -15.2, -15.2, -14.64, -14.16, -12.46, -10.08, -10.73, -10.28, -8.77, -9.75, -9.75, -9.6, -10.08, -9.29, -9.39, -10.28, -9.83, -8.8, -6.64, -6.95, -7.27, -4.6, -4.6, -5.0, -0.0, -0.0, 4.8, 4.2, 5.46, 7.27, -2.82, -4.24, -1.2, -0.86, -4.08, -7.44, -9.42, -10.04, -12.3, -11.26, -12.37, -13.97, -16.87, -7.97, 6.59, 11.04, 10.15, 6.8, 6.81, 7.39, 6.97, 7.44, 9.71, 12.96, 13.79, 13.41, 11.52, 8.97, 7.48, 5.62, 5.8, 6.96, 8.66, 11.69, 9.69, 9.17, 9.48, 7.54, 4.9, 2.06, 2.06, 8.97, 8.65, 9.37, 9.37, 9.92, 10.17, 10.78, 9.6, 8.35, 7.6, 7.2, 6.54, 6.72, 6.72, 7.6, 6.69, 3.33, 0.0, -4.23, -9.67, -15.59, -16.12, -16.48, -16.54, -16.09, -15.97, -15.99, -16.01, -16.01, -15.99, -15.55, -14.64, -12.79, -12.07, -8.94, -9.39, -9.7, -10.41, -10.28, -9.83, -9.83, -8.94, -10.28, -8.67, -9.33, -8.8, -9.2, -9.2, -7.27, -7.27, -0.0, -0.0, -0.0, 7.59, 7.59, 7.27, 7.27, 7.59, 0.0, -5.27, -3.6, -3.53, -10.18, -7.59, -3.39, -0.0, -0.0, -11.03, -12.39, -13.95, 0.0, 4.82, 8.48, 9.4, 4.79, 2.33, 1.47, 1.96, 4.77, 9.32, 11.64, 13.76, 14.33, 12.16, 11.07, 9.0, 7.54, 5.8, 6.9, 7.95, 9.8, 9.48, 8.32, 7.43, 6.51, 4.12, 2.81, 2.81, 8.97, 9.43, 8.87, 9.37, 9.37, 10.17, 10.17, 9.6, 9.36, 8.13, 7.4, 5.98, 6.14, 6.14, 6.9, 5.81, 4.79, 0.0, 0.0, -5.23, -14.79, -15.19, -16.05, -16.09, -16.09, -15.97, -16.44, -15.78, -15.83, -15.83, -15.39, -14.9, -14.03, -11.35, -10.41, -10.14, -9.83, -10.28, -9.83, -9.83, -9.83, -9.83, -9.83, -10.28, -9.75, -9.2, -9.6, -9.2, -7.27, -7.27, -0.0, -0.0, -0.0, -0.0, 7.27, 7.27, 9.2, 7.59, 5.0, -3.53, -3.82, -2.82, 10.73, -4.8, -3.39, -1.93, -0.0, -0.0, -12.07, -11.06, -11.16, 0.0, 6.22, 4.65, 0.0, -0.94, -2.22, -1.44, 1.78, 5.39, 7.8, 11.17, 12.64, 9.13, 9.06, 8.46, 8.72, 7.96, 6.9, 6.85, 7.36, 7.19, 6.24, 5.78, 6.4, 4.43, 3.44, 3.44, 8.97, 8.97, 9.43, 9.43, 10.18, 10.18, 10.17, 9.92, 9.6, 8.35, 7.92, 6.84, 6.84, 6.31, 6.14, 5.16, 4.01, 2.34, 0.0, -5.09, -11.7, -12.33, -14.79, -16.99, -15.65, -16.09, -12.86, -15.08, -15.27, -13.63, -14.11, -13.88, -13.01, -11.71, -10.84, -10.41, -10.12, -10.68, -11.18, -10.73, -9.83, -10.28, -11.18, -11.18, -11.62, -10.73, -9.6, -9.2, -9.2, -7.27, -7.27, -0.0, -0.0, -0.0, -0.0, 4.6, 7.27, 10.0, 10.8, 11.62, 5.2, 8.22, 11.18, -0.0, -2.39, -1.84, -0.0, -0.0, 3.39, 10.12, 17.88, 19.73, 21.58, 21.99, 0.0, -1.83, -4.04, -3.24, -1.0, 2.3, 7.99, 9.24, 8.99, 8.59, 8.53, 8.93, 9.61, 9.35, 7.68, 6.0, 4.89, 5.55, 6.42, 5.25, 4.38, 3.22, 3.81, 3.81, 9.24, 8.97, 9.43, 9.43, 9.67, 10.18, 10.18, 9.92, 9.01, 8.78, 8.13, 6.84, 6.84, 7.03, 5.81, 4.75, 3.59, 1.94, 0.0, -9.17, -12.33, -7.6, -15.19, -17.43, -16.09, -15.65, -14.75, -13.36, -13.8, -12.75, -12.35, -12.14, -11.76, -11.76, -11.33, -10.45, -10.58, -10.68, -10.68, -10.28, -10.73, -10.66, -11.09, -11.02, -10.96, -10.4, -9.2, -9.2, -7.27, -4.4, -4.4, -4.6, -0.0, -0.0, -0.0, 3.11, 5.0, 9.6, 10.73, 11.62, 11.18, 10.73, -0.0, -0.0, -0.0, -0.0, 2.49, 2.71, 6.7, 11.5, 15.69, 19.4, 23.9, 26.27, 19.93, 2.25, -1.58, -5.54, 0.0, 2.65, 5.56, 7.08, 7.6, 7.04, 7.4, 7.32, 7.36, 7.38, 8.31, 6.31, 5.55, 4.38, 4.47, 4.08, 2.72, 2.98, 2.89, 2.89, 9.24, 9.67, 9.67, 10.13, 10.13, 10.63, 10.18, 9.37, 9.92, 9.01, 8.56, 7.4, 6.36, 6.53, 6.53, 5.81, 3.24, 1.73, 0.0, -7.6, -7.8, -7.0, -13.39, -16.09, -16.09, -16.09, -14.75, -13.86, -12.91, -11.91, -11.46, -11.46, -11.46, -11.49, -11.46, -11.02, -11.02, -10.68, -10.68, -11.12, -11.12, -11.11, -11.09, -11.95, -10.79, -11.45, -8.8, -9.2, -7.27, -4.6, -4.4, -4.6, -0.0, -0.0, -0.0, 2.49, 2.71, -0.0, 11.62, 11.18, 11.18, 11.18, -0.0, -0.0, -0.0, -0.0, 2.1, 2.37, 4.81, 10.82, 14.84, 18.25, 23.25, 24.63, 17.08, 7.21, -2.83, -6.57, -3.6, 0.0, 3.42, 5.09, 5.18, 4.98, 5.81, 5.62, 5.62, 7.03, 8.05, 7.64, 6.72, 5.16, 3.58, 3.94, 2.72, 2.72, 2.56, 2.56, 9.0, 9.67, 9.67, 9.67, 10.13, 10.13, 9.92, 10.18, 9.37, 9.14, 8.56, 7.4, 7.4, 7.12, 6.53, 5.37, 4.47, 3.16, 0.0, -5.23, -8.93, -9.49, -13.7, -15.05, -16.09, -16.54, -16.09, -15.2, -13.8, -12.92, -11.91, -11.46, -11.46, -11.46, -11.46, -11.0, -11.44, -11.44, -11.12, -11.12, -10.91, -10.91, -10.84, -11.61, -10.6, -9.6, -9.6, -6.95, -7.27, -4.6, -4.6, -4.8, -3.39, -0.0, -0.0, -0.0, -0.0, -0.0, -11.62, 10.73, -0.0, -0.0, -0.0, -0.0, -0.0, -0.0, -0.0, 2.37, 2.54, 8.18, 12.52, 20.12, 23.69, 10.8, 5.0, 5.6, 3.69, -3.99, -6.31, -2.61, 0.92, 2.58, 2.13, 3.18, 5.14, 5.16, 6.0, 6.78, 8.18, 7.8, 7.36, 7.44, 5.92, 3.47, 3.22, 2.81, 2.89, 2.89, 9.0, 9.0, 9.0, 9.67, 9.67, 10.13, 10.13, 9.43, 9.14, 9.14, 8.9, 7.84, 6.93, 6.93, 7.12, 6.1, 5.37, 2.72, 1.83, -2.4, -7.4, -11.38, -13.19, -14.16, -14.64, -15.65, -16.09, -16.09, -15.14, -14.25, -13.23, -12.79, -11.91, -11.44, -11.44, -11.44, -11.4, -11.4, -11.35, -11.35, -11.28, -10.88, -10.68, -10.4, -9.97, -8.94, -7.59, -6.64, -6.64, -4.6, -4.6, -3.39, -3.39, -2.71, -0.0, -0.0, -0.0, -4.1, -12.96, 9.39, 9.39, -0.0, -0.0, -0.0, -0.0, 1.58, 1.91, 2.71, 2.82, 6.94, 9.8, -17.88, -26.37, -13.86, 1.58, 4.4, 7.9, 4.47, -4.12, -4.66, -1.74, 0.0, 0.0, 0.87, 2.72, 3.57, 5.15, 6.4, 7.11, 9.2, 9.39, 8.58, 7.36, 5.31, 3.47, 3.93, 3.47, 3.47, 9.62, 9.62, 9.62, 9.62, 10.31, 10.13, 10.13, 9.43, 9.43, 9.43, 8.9, 7.84, 7.84, 7.4, 6.69, 6.1, 5.0, 3.72, 1.5, 0.0, -5.37, -11.7, -13.42, -14.61, -14.19, -14.75, -15.2, -15.65, -15.58, -15.14, -14.25, -13.63, -12.75, -12.31, -11.4, -10.96, -10.96, -10.91, -11.35, -10.88, -10.68, -10.68, -9.67, -9.67, -8.22, -7.9, -8.85, -6.2, -5.95, -6.2, -6.45, -6.2, -5.95, -3.39, -2.49, -2.49, -1.69, -2.37, -12.96, 11.62, 8.94, -0.0, -0.0, -0.0, -0.0, 1.98, 1.98, 3.04, 5.0, 9.3, 10.6, -18.39, -25.93, -28.16, 0.0, 5.28, 8.83, 10.37, 5.81, -3.48, -3.57, -2.36, -0.76, 0.0, 0.81, 2.34, 4.75, 5.76, 6.8, 6.64, 8.9, 7.03, 7.44, 7.13, 5.92, 4.81, 4.38, 4.38, 9.23, 9.23, 9.62, 9.62, 9.62, 10.05, 10.13, 10.13, 9.43, 9.43, 8.43, 8.21, 8.21, 7.4, 7.4, 6.69, 5.56, 4.86, 2.72, 0.0, -2.4, -8.74, -12.92, -14.39, -14.61, -14.64, -14.75, -14.75, -15.2, -14.69, -14.69, -14.25, -13.15, -12.71, -12.27, -11.35, -10.91, -10.84, -10.84, -10.68, -10.68, -10.4, -9.3, -9.3, -7.9, -7.59, -8.22, -6.7, -6.14, -5.46, -5.95, -6.94, -5.95, -5.95, -5.7, -4.6, -4.6, -3.11, -5.2, -0.0, 7.9, -0.0, -0.0, -0.0, -0.0, 1.98, 3.82, 4.48, 7.24, 11.62, 13.41, 15.65, -21.9, -27.72, -12.39, 7.64, 11.17, 12.11, 12.79, 7.44, -1.83, -2.88, -1.5, 0.0, 0.0, 1.66, 3.51, 3.68, 3.99, 2.72, 2.4, 6.99, 8.41, 8.46, 7.2, 5.81, 5.46, 5.46, 8.99, 8.99, 9.37, 9.62, 9.62, 10.05, 10.05, 9.42, 9.67, 8.97, 9.19, 8.43, 8.21, 8.21, 6.99, 6.14, 6.52, 4.54, 3.72, 1.5, 0.0, -5.37, -10.61, -12.92, -14.38, -14.75, -14.64, -14.3, -14.3, -14.3, -14.23, -13.79, -13.15, -13.09, -12.22, -11.78, -11.28, -10.84, -10.27, -10.27, -10.0, -10.4, -8.73, -8.73, -8.38, -8.38, -9.08, -6.42, -6.14, -5.46, -6.5, -5.54, -7.51, -5.4, -6.2, -5.95, -5.7, -4.4, -3.25, -0.0, 5.4, 3.82, 1.84, -0.0, -0.0, 1.98, 4.65, 4.65, 10.79, 12.52, 11.45, 12.79, 12.01, 0.0, -19.28, 8.34, 15.49, 13.18, 10.66, 10.58, 9.48, 0.0, -1.47, -1.5, -0.74, 0.0, 1.73, 1.83, 0.92, 0.89, 0.0, 5.56, 7.97, 9.39, 8.31, 7.68, 5.46, 5.46, 8.99, 8.99, 8.99, 9.62, 9.62, 9.62, 10.05, 10.05, 9.42, 9.42, 8.74, 8.74, 7.78, 7.78, 7.78, 6.99, 6.14, 5.23, 4.54, 2.72, 0.0, -2.34, -7.4, -11.7, -13.39, -15.04, -15.05, -14.64, -14.3, -13.86, -13.33, -13.31, -12.86, -12.46, -12.04, -12.04, -11.87, -10.8, -10.35, -9.3, -8.94, -9.3, -8.22, -7.59, -7.27, -7.9, -7.9, -7.27, -6.14, -4.4, -5.32, -5.0, -4.6, -4.6, -5.75, -6.44, -5.95, -5.7, -4.2, -3.25, -0.0, 2.71, 2.71, -0.0, -0.0, 2.28, 4.48, 10.79, 12.3, 12.96, 12.3, 11.16, 12.27, 5.37, -4.88, 5.35, 16.19, 13.91, 9.56, 9.66, 10.2, 9.76, 1.89, -1.42, -2.94, -0.78, 0.0, 0.0, 0.0, 0.0, 0.0, 0.0, 6.87, 8.67, 8.65, 7.5, 6.4, 6.4, 8.99, 8.99, 8.99, 9.62, 9.62, 9.62, 9.62, 10.05, 10.05, 9.42, 9.42, 8.74, 8.74, 8.74, 7.99, 7.78, 6.63, 6.14, 5.23, 3.72, 1.5, 0.0, -4.54, -10.05, -12.57, -13.99, -14.42, -14.42, -14.55, -14.3, -13.86, -13.72, -13.28, -12.3, -11.87, -11.62, -10.73, -10.73, -9.66, -8.53, -6.97, -5.2, -5.0, -5.7, -5.46, -4.8, -4.6, -6.17, -5.06, -3.25, -3.07, -2.6, -3.77, -4.18, -3.77, -4.32, -3.53, -3.39, -2.49, -2.49, -3.53, -0.0, -0.0, -0.0, 2.28, 3.04, 9.48, 12.52, 10.8, 12.96, 14.3, 13.88, 11.5, 8.31, 0.0, 0.0, 8.51, 10.07, 8.45, 8.76, 8.93, 9.56, 10.85, 3.96, -0.7, -2.08, -2.93, -1.83, 0.0, 0.0, 0.0, 0.0, 4.01, 6.81, 8.51, 8.05, 7.82, 7.82, 9.54, 9.54, 9.54, 9.54, 10.19, 9.62, 9.62, 9.62, 9.62, 10.05, 9.42, 8.74, 8.74, 8.74, 8.74, 7.4, 7.4, 6.63, 6.14, 4.54, 4.01, 1.6, -2.0, -5.09, -9.77, -8.05, -12.16, -13.59, -14.47, -14.75, -14.3, -13.59, -13.59, -12.45, -12.04, -11.2, -10.01, -10.01, -8.53, -7.24, -5.2, -2.82, -2.71, -3.82, -3.82, -2.49, -2.28, -1.93, -1.69, -1.69, -1.58, -1.52, -2.49, -3.61, -3.77, -2.95, -2.93, -2.82, -2.6, -2.71, -2.71, -2.71, -2.93, -0.0, 2.37, 5.8, 7.13, 12.52, 0.0, 0.0, 13.86, 14.75, 13.72, 11.99, 8.58, 4.82, 3.6, 4.32, 7.4, 9.19, 8.01, 7.27, 9.92, 10.43, 7.96, 0.0, -3.59, -3.9, -2.39, 0.0, 0.0, 0.0, 0.0, 3.32, 6.16, 7.23, 7.74, 7.74, 9.54, 9.54, 9.54, 9.54, 9.8, 10.19, 10.19, 9.62, 9.62, 9.62, 9.62, 9.0, 8.33, 9.0, 8.33, 8.11, 7.4, 6.63, 6.63, 5.98, 4.73, 2.88, 3.07, 0.0, 0.0, -2.98, -6.8, -10.75, -12.27, -14.75, -14.3, -13.88, -13.44, -11.16, -10.79, -8.85, -8.85, -8.85, -8.53, -5.4, -5.4, -2.28, -0.0, -0.0, -2.19, -3.68, -2.71, -3.25, -3.25, -3.53, -3.53, -2.82, -2.82, -4.05, -4.23, -4.23, -2.7, -3.53, -2.28, -5.0, -4.8, -5.0, -0.0, -0.0, -0.0, -0.0, 2.2, -0.0, 0.0, 0.0, -0.0, 11.16, 15.93, 16.99, 15.69, 16.48, 15.11, 7.8, 4.45, 7.47, 10.42, 8.85, 8.79, 9.92, 10.04, 11.64, 1.53, -1.89, -2.15, -1.39, -0.71, -0.82, -0.74, 1.78, 3.93, 5.76, 6.77, 6.77, 9.54, 9.54, 9.54, 9.54, 9.54, 9.8, 10.19, 10.19, 9.37, 9.37, 9.62, 9.0, 9.0, 9.0, 9.0, 8.77, 7.89, 7.4, 6.63, 6.63, 5.41, 6.56, 5.35, 3.39, 2.15, 0.0, 0.0, -4.66, -6.4, -14.75, -14.75, -12.79, -12.79, -9.8, -9.48, -9.17, -6.94, -6.94, -6.94, -5.4, -2.93, -2.93, -0.0, -0.0, -0.0, -2.93, -2.93, -3.98, -3.82, -4.15, -3.98, -3.25, -3.25, -3.39, -3.39, -3.39, -3.25, -1.91, -3.39, -5.0, -5.0, -3.68, -0.0, -0.0, -2.93, -2.28, -0.0, -0.0, 12.07, 10.28, -0.0, 5.0, 13.99, 22.36, 21.01, 17.25, 16.44, 14.75, 10.33, 6.22, 8.78, 8.6, 8.86, 9.31, 10.22, 11.57, 11.9, 8.31, 2.56, 0.0, -0.82, -1.54, -1.44, 0.0, 2.17, 3.57, 4.67, 4.67, 9.28, 9.28, 9.54, 9.54, 9.54, 9.54, 9.54, 9.92, 9.92, 9.92, 9.37, 9.62, 9.0, 9.0, 9.0, 8.77, 8.53, 7.89, 7.4, 7.2, 7.36, 7.0, 7.0, 5.64, 5.34, 4.81, 0.0, 0.0, 0.0, 0.0, 14.3, -0.0, -0.0, -0.0, -6.2, -6.0, -4.1, -4.1, -3.96, -3.96, -2.93, -2.93, -0.0, -0.0, -0.0, -2.19, -2.71, -2.6, -2.6, -2.71, -2.6, -2.49, -2.6, -2.6, -2.49, -3.82, -2.19, -2.19, -2.1, -3.82, -6.7, -3.68, -0.0, -2.71, -5.2, -5.0, -2.49, -0.0, -0.0, 8.53, 3.25, 4.8, 13.86, 18.78, 28.91, 20.12, 13.57, 11.62, 13.86, 12.64, 7.58, 7.04, 7.6, 8.05, 9.54, 11.91, 12.65, 12.65, 10.99, 6.88, 2.72, 0.0, -0.98, -0.84, 0.73, 2.11, 3.01, 3.01, 9.28, 9.28, 9.28, 9.54, 9.54, 9.54, 9.54, 9.54, 9.92, 9.92, 9.92, 9.37, 9.62, 9.0, 9.62, 9.37, 8.77, 8.53, 8.53, 7.89, 8.05, 7.76, 7.21, 7.28, 7.38, 7.32, 4.66, 6.4, 6.2, 10.75, 13.41, 13.86, -0.0, -0.0, -0.0, -0.0, -0.0, -0.0, -0.0, -0.0, -0.0, -0.0, -0.0, -0.0, -0.0, -2.71, -2.71, -2.6, -2.6, -3.39, -3.25, -3.25, -2.71, -2.6, -2.49, -2.6, -0.0, -0.0, -0.0, -2.1, -4.8, -0.0, -0.0, -0.0, -2.71, -5.0, -5.95, -5.7, -8.22, -0.0, 6.7, 7.9, 11.62, 15.27, 28.02, 24.14, 18.33, 14.75, 13.15, 14.75, 14.39, 9.87, 8.68, 9.2, 10.61, 11.7, 12.57, 12.45, 10.99, 9.48, 8.1, 7.44, 3.36, 0.0, 0.0, 0.0, 1.51, 1.51, 9.28, 9.28, 9.28, 9.28, 9.54, 9.54, 9.54, 9.54, 9.54, 9.92, 9.92, 9.37, 9.37, 9.62, 9.37, 9.37, 9.12, 9.12, 8.53, 8.68, 8.05, 8.22, 8.65, 8.43, 8.46, 8.85, 7.93, 10.12, 10.43, 13.57, 13.41, 13.41, 11.99, 9.8, 6.2, 6.2, -0.0, -0.0, -0.0, -0.0, -0.0, -0.0, -0.0, -0.0, -0.0, -0.0, -0.0, -3.39, -3.39, -3.39, -3.39, -3.53, -0.0, -0.0, -0.0, -0.0, -0.0, -0.0, -0.0, -2.1, -3.96, -0.0, -0.0, -0.0, -2.49, -5.95, -5.95, -5.95, -8.22, -0.0, 3.96, 8.85, 12.52, 13.2, 22.27, 25.84, 21.77, 17.67, 16.32, 17.33, 16.99, 15.91, 14.4, 12.9, 12.9, 13.39, 13.8, 13.03, 10.86, 7.79, 7.28, 8.85, 8.85, 7.44, 2.91, 0.0, 1.68, 1.68, 9.28, 9.28, 9.28, 9.28, 9.28, 9.54, 9.54, 9.54, 9.54, 9.54, 9.92, 9.92, 9.37, 9.62, 9.37, 9.92, 10.05, 9.52, 9.52, 8.93, 8.68, 8.83, 9.27, 9.12, 9.22, 9.06, 9.31, 10.99, 12.27, 13.88, 14.3, 13.86, 12.72, 12.72, 11.16, 9.8, 9.8, 4.38, 4.24, 4.24, 4.24, 4.1, 3.96, 3.82, -0.0, -0.0, -0.0, -0.0, -0.0, -0.0, -4.8, -3.53, -0.0, -0.0, -0.0, -0.0, -0.0, -0.0, -0.0, -1.69, -3.65, -3.68, -0.0, -0.0, -0.0, -5.0, -7.59, -7.9, -7.9, -5.4, -0.0, 6.2, 14.3, 15.57, 19.08, 21.4, 20.51, 19.17, 19.95, 19.14, 17.35, 16.12, 14.3, 13.89, 13.27, 13.19, 13.43, 12.51, 10.18, 7.28, 6.63, 7.51, 9.5, 10.87, 9.96, 7.54, 1.95, 1.95, 9.02, 9.02, 9.28, 9.28, 9.78, 9.78, 10.05, 9.54, 9.54, 9.54, 9.92, 9.92, 9.37, 9.92, 9.37, 10.33, 10.05, 10.05, 10.05, 9.52, 9.67, 9.39, 9.27, 9.44, 10.43, 10.43, 10.77, 11.64, 12.42, 13.57, 14.11, 14.3, 13.59, 13.01, 11.99, 11.99, 11.16, 9.48, 7.44, 7.44, 7.44, 7.19, 4.1, 5.6, 5.4, 5.4, -0.0, -0.0, -0.0, -0.0, -0.0, -4.8, -3.39, -0.0, -0.0, -0.0, -0.0, -0.0, -0.0, -0.0, -2.02, -3.32, -3.39, -3.25, -0.0, -5.0, -4.6, -7.59, -7.9, -5.0, -0.0, 5.8, 15.18, 16.9, 19.22, 17.37, 17.43, 19.67, 21.46, 21.81, 19.64, 15.2, 12.42, 10.99, 11.37, 11.33, 11.33, 10.61, 10.19, 9.96, 9.17, 9.17, 9.84, 11.6, 12.04, 11.92, 5.15, 5.15, 9.02, 9.02, 9.28, 9.78, 9.78, 9.78, 10.05, 10.05, 9.54, 9.54, 9.92, 9.92, 9.92, 10.33, 10.33, 10.33, 10.05, 10.05, 10.47, 10.47, 9.67, 9.82, 10.27, 10.43, 10.92, 10.97, 11.29, 11.9, 12.79, 13.39, 14.16, 14.3, 14.3, 13.67, 13.59, 12.45, 11.99, 10.73, 9.48, 9.48, 9.48, 7.19, 6.94, 5.8, 5.0, 8.53, 8.53, 8.22, 8.22, -0.0, -0.0, -0.0, -0.0, -0.0, -0.0, -0.0, -0.0, -0.0, -0.0, -0.0, -0.0, -0.0, -0.0, -0.0, -0.0, -0.0, -4.4, -3.25, -3.39, -3.39, -0.0, 5.8, 14.84, 16.79, 20.51, 17.88, 12.74, 15.91, 20.42, 19.99, 17.59, 13.95, 10.75, 9.17, 9.16, 10.37, 10.73, 10.99, 11.26, 11.26, 11.26, 11.37, 10.73, 11.64, 11.6, 11.92, 12.56, 10.91, 9.02, 9.02, 9.5, 9.78, 9.78, 9.78, 9.78, 9.78, 10.05, 9.92, 9.92, 9.66, 9.66, 10.05, 10.33, 10.05, 10.05, 10.95, 10.95, 10.47, 10.61, 10.61, 10.75, 10.43, 10.92, 11.07, 11.72, 12.27, 13.07, 13.57, 14.19, 14.3, 14.3, 14.3, 13.67, 13.67, 12.45, 11.5, 10.73, 10.73, 9.48, 10.79, 6.94, 9.17, 7.9, 8.53, 8.53, 8.53, 10.4, 10.0, 7.9, -0.0, -0.0, -0.0, -0.0, -0.0, -0.0, -0.0, -0.0, -0.0, -0.0, -0.0, -0.0, -0.0, -0.0, -0.0, -0.0, -2.49, -2.6, -0.0, -0.0, -0.0, 13.19, 13.61, 18.54, 20.39, 13.19, 12.16, 15.36, 15.71, 10.19, 9.12, 9.49, 9.44, 8.87, 10.3, 11.28, 12.03, 12.33, 12.33, 12.56, 12.25, 11.72, 11.99, 11.64, 11.26, 11.99, 12.56, 9.02, 9.02, 9.5, 9.5, 9.78, 9.78, 9.78, 10.15, 10.15, 9.66, 9.66, 9.66, 10.83, 10.83, 10.83, 10.33, 10.76, 10.47, 11.38, 11.06, 11.06, 10.75, 11.2, 10.87, 11.33, 11.44, 12.07, 12.56, 13.28, 13.7, 13.96, 14.22, 14.3, 14.3, 14.3, 14.16, 13.15, 12.72, 12.45, 12.45, 11.99, 10.79, 10.79, 8.53, 9.17, 9.67, 8.53, 10.04, 9.67, 9.3, 9.3, 5.95, 3.39, 3.25, 3.11, 3.11, 2.97, -0.0, -0.0, 1.84, 1.93, -0.0, -0.0, -0.0, -0.0, -0.0, -0.0, -2.49, -2.1, -0.0, -0.0, 5.2, -0.0, 7.0, 6.22, -8.48, -22.9, -16.09, 0.0, 0.0, 6.0, 9.48, 10.73, 11.5, 11.88, 12.79, 13.15, 14.18, 13.15, 12.98, 12.98, 13.15, 12.39, 12.11, 11.37, 10.91, 10.55, 11.99, 9.02, 9.02, 9.5, 9.5, 9.5, 9.5, 10.15, 10.15, 10.15, 10.15, 9.66, 10.33, 10.83, 10.83, 10.83, 11.25, 11.25, 10.95, 11.38, 11.5, 11.17, 11.6, 11.26, 11.69, 12.13, 11.9, 12.36, 12.79, 13.44, 13.8, 14.03, 13.79, 14.22, 14.3, 14.3, 14.16, 13.72, 13.67, 13.15, 12.87, 11.99, 11.6, 10.79, 10.41, 8.85, 11.16, 8.22, 7.9, 7.59, 8.58, 8.58, 6.17, 6.17, 4.6, 5.46, 5.21, 2.97, 2.17, 2.17, 1.84, 1.84, 1.84, -0.0, -0.0, -0.0, -0.0, -0.0, -3.39, -2.49, -0.0, -0.0, -0.0, -0.0, -0.0, -0.0, -18.39, -29.98, -26.74, -17.88, -13.86, -0.0, 13.19, 15.05, 16.09, 16.09, 15.11, 14.47, 14.4, 13.99, 13.57, 13.7, 13.28, 12.62, 12.62, 11.16, 10.99, 10.55, 10.55, 9.5, 9.5, 9.5, 9.5, 9.5, 10.3, 10.6, 10.15, 10.15, 10.54, 10.33, 10.33, 10.83, 10.83, 11.25, 11.25, 11.25, 11.38, 11.38, 11.5, 11.17, 11.6, 11.69, 11.69, 12.13, 12.56, 12.6, 12.79, 13.2, 13.44, 13.8, 14.03, 14.23, 14.3, 13.86, 14.3, 14.3, 14.16, 14.11, 13.59, 13.59, 13.01, 11.6, 11.6, 11.6, 11.6, 9.66, 7.59, 7.27, 8.23, 7.27, 5.9, 5.9, 5.9, 6.64, 5.21, 4.96, 2.17, 2.17, 2.17, 1.84, 1.75, 1.67, -0.0, -0.0, -0.0, -0.0, -3.25, -2.49, -2.71, -2.82, -2.71, -0.0, -0.0, -0.0, -11.38, -21.25, -30.79, -19.91, 5.2, 10.91, 14.11, 16.69, 18.08, 17.37, 16.54, 14.51, 13.8, 13.7, 13.28, 13.28, 13.02, 12.39, 11.99, 11.33, 11.6, 11.6, 11.6, 9.23, 9.23, 9.5, 9.5, 10.3, 10.3, 10.6, 10.6, 10.54, 10.54, 10.83, 10.83, 10.83, 11.25, 11.25, 11.7, 11.79, 11.38, 11.38, 11.17, 11.6, 11.26, 11.69, 12.13, 12.13, 12.56, 12.6, 12.99, 13.2, 13.57, 13.8, 14.07, 14.23, 14.3, 13.86, 14.3, 14.3, 14.3, 14.3, 14.3, 13.59, 13.15, 13.01, 11.6, 11.6, 11.6, 11.2, 10.4, 8.93, 7.27, 6.95, 6.95, 6.64, 6.64, 6.64, 4.96, 4.0, 3.8, 2.06, 2.17, 1.75, 1.75, 1.75, -0.0, -0.0, -0.0, -0.0, -3.39, -2.49, -2.71, -5.0, -4.8, -6.45, -9.17, -0.0, 6.8, 15.99, 19.71, 21.81, 19.28, 17.07, 19.85, 22.19, 21.42, 19.61, 16.99, 15.43, 14.23, 12.79, 12.79, 12.39, 12.62, 12.79, 12.6, 12.04, 11.85, 11.85, 11.85, 9.23, 9.23, 9.23, 9.87, 10.3, 10.3, 10.3, 10.68, 10.54, 10.54, 10.54, 10.54, 11.25, 10.95, 10.95, 11.79, 11.79, 11.47, 11.88, 11.17, 11.26, 11.26, 11.69, 12.13, 12.56, 12.18, 12.6, 12.99, 13.35, 13.57, 13.88, 14.07, 14.25, 14.25, 14.3, 14.3, 14.3, 14.3, 14.3, 14.3, 13.86, 13.59, 13.15, 12.71, 12.71, 12.14, 12.14, 10.8, 10.4, 9.3, 8.55, 8.18, 8.18, 7.81, 6.64, 6.01, 6.01, 5.69, 4.46, 3.8, 2.06, 1.75, 3.32, 2.06, -0.0, -0.0, -0.0, -2.97, -4.6, -4.8, -6.45, -4.6, -7.9, -8.85, -9.48, -0.0, 13.39, 16.39, 19.33, 19.71, 21.17, 24.07, 24.07, 23.45, 20.12, 17.83, 16.76, 15.53, 14.11, 12.11, 13.15, 11.62, 12.04, 12.42, 12.42, 11.62, 11.62, 11.62, 9.23, 9.23, 9.23, 9.58, 10.3, 10.01, 10.68, 10.68, 10.68, 10.54, 10.54, 10.95, 10.95, 10.95, 10.95, 11.47, 11.47, 11.88, 11.54, 11.54, 11.95, 12.0, 12.0, 12.13, 12.18, 12.6, 12.99, 12.99, 13.35, 13.67, 13.88, 14.11, 14.11, 14.25, 14.23, 14.23, 14.22, 14.19, 14.3, 14.3, 13.86, 13.41, 13.23, 12.71, 12.71, 12.27, 11.84, 11.71, 11.28, 11.28, 10.84, 8.93, 8.55, 8.18, 8.18, 6.32, 6.32, 6.01, 5.69, 4.46, 3.8, 3.8, 4.0, 2.28, 2.17, -0.0, -0.0, -0.0, -5.46, -6.17, -7.27, -5.95, -8.22, -8.85, -9.48, -0.0, 13.59, 14.94, 15.53, 14.59, 19.04, 27.59, 27.88, 22.74, 21.01, 19.17, 18.11, 16.91, 14.53, 13.56, 12.45, 11.3, 11.87, 11.99, 11.62, 11.21, 11.21, 11.21, 9.23, 9.23, 9.58, 9.58, 10.01, 10.01, 10.37, 10.68, 10.68, 10.68, 10.65, 10.65, 10.65, 10.65, 11.06, 11.47, 11.47, 11.54, 11.54, 11.95, 12.37, 12.0, 12.03, 12.42, 12.42, 12.79, 13.15, 13.47, 13.35, 13.67, 13.94, 13.88, 14.11, 14.07, 14.07, 14.23, 14.22, 14.19, 14.3, 13.86, 13.86, 13.41, 13.41, 12.79, 12.79, 12.27, 11.84, 11.84, 11.4, 11.28, 10.84, 10.41, 10.41, 9.2, 8.18, 8.18, 7.44, 6.01, 5.69, 4.46, 4.46, 3.8, 3.8, 3.32, 1.75, -0.0, -0.0, -0.0, -4.4, -5.46, -7.27, -7.9, -8.22, -8.85, -5.8, -0.0, -0.0, 12.65, 12.57, 12.92, 14.42, 24.07, 28.19, 25.7, 23.18, 20.12, 17.35, 14.84, 13.7, 11.6, 11.62, 12.04, 11.71, 11.45, 11.21, 11.21, 11.21, 11.21, 9.23, 9.23, 9.58, 9.71, 10.01, 10.37, 10.37, 10.37, 10.37, 11.06, 11.06, 10.65, 10.65, 10.65, 11.06, 11.14, 11.14, 11.54, 11.54, 12.26, 11.9, 12.65, 12.27, 12.62, 12.42, 12.79, 13.15, 13.15, 13.47, 13.67, 13.67, 13.94, 13.88, 13.8, 14.07, 14.03, 14.22, 14.22, 13.86, 13.86, 13.41, 13.41, 12.96, 12.96, 12.96, 12.35, 11.84, 12.07, 11.62, 11.4, 10.84, 10.84, 10.41, 10.41, 9.97, 8.18, 7.81, 7.44, 6.01, 5.69, 4.22, 4.46, 3.8, 3.32, 1.75, -0.0, -0.0, -0.0, -0.0, -6.95, -7.27, -4.8, -5.2, -5.4, -5.6, -0.0, -0.0, 4.52, 8.85, 9.39, 9.92, 16.74, 23.59, 26.97, 26.82, 21.17, 15.96, 11.6, 11.92, 11.87, 11.62, 11.21, 11.03, 10.27, 10.46, 10.05, 10.05, 10.05, 9.3, 9.3, 9.3, 9.71, 9.71, 10.07, 10.43, 10.37, 10.75, 10.75, 10.75, 10.75, 10.75, 10.75, 10.75, 11.14, 11.14, 11.54, 11.54, 11.6, 11.6, 12.27, 12.27, 12.62, 12.62, 12.79, 13.15, 13.15, 13.47, 13.35, 13.67, 13.99, 14.31, 14.23, 14.07, 14.03, 14.23, 13.77, 13.86, 13.41, 13.41, 12.96, 12.96, 12.96, 12.52, 12.52, 12.07, 12.07, 11.62, 11.4, 10.96, 10.96, 10.96, 10.41, 9.97, 9.97, 8.18, 7.81, 7.07, 5.69, 4.46, 4.22, 3.6, 2.06, 1.67, -0.0, -0.0, -0.0, -0.0, -6.95, -8.8, -7.27, -5.0, -5.4, -5.6, -5.8, -0.0, -0.0, 3.47, 3.58, 4.95, 9.92, 14.22, 24.69, 25.95, 18.95, 10.91, 8.03, 10.4, 11.5, 11.09, 9.97, 9.96, 9.96, 9.75, 9.33, 9.33, 9.33, 9.3, 9.3, 9.3, 9.71, 10.07, 10.07, 10.43, 10.43, 10.78, 10.75, 10.75, 10.75, 10.75, 11.14, 11.14, 11.47, 11.54, 11.54, 11.2, 11.6, 11.25, 11.9, 12.27, 12.62, 12.42, 12.79, 12.79, 13.15, 13.15, 13.35, 13.77, 13.99, 13.99, 14.31, 14.07, 14.07, 14.23, 13.79, 13.86, 13.41, 13.41, 12.96, 12.96, 12.52, 12.52, 12.52, 12.07, 12.07, 11.62, 11.62, 11.62, 11.18, 10.96, 10.41, 10.41, 9.97, 9.33, 7.81, 7.44, 7.07, 4.46, 4.22, 4.22, 1.95, 1.95, -0.0, -0.0, 4.6, -0.0, -0.0, -9.2, -9.33, -8.8, -7.9, -8.53, -5.6, -5.8, -0.0, -0.0, -0.0, -0.0, 4.66, 11.06, 18.78, 21.29, 9.76, 4.81, 0.0, 7.59, 9.09, 9.3, 8.93, 8.94, 8.93, 9.97, 9.54, 9.54, 9.54, 9.3, 9.02, 9.42, 9.42, 9.76, 9.76, 10.12, 10.78, 10.78, 10.78, 10.43, 10.43, 11.14, 11.47, 11.47, 11.14, 11.54, 11.2, 11.2, 11.25, 11.25, 11.64, 12.03, 12.03, 12.42, 12.42, 12.79, 12.79, 13.39, 13.77, 13.77, 13.99, 13.99, 14.31, 14.07, 14.07, 14.25, 13.79, 13.79, 13.41, 13.41, 12.96, 12.96, 12.52, 12.52, 12.07, 12.07, 12.07, 11.62, 11.62, 11.62, 11.62, 11.18, 10.41, 10.41, 9.97, 9.54, 8.91, 7.44, 7.44, 6.01, 5.69, 4.22, 2.4, 2.4, 2.26, 4.2, -0.0, -0.0, -0.0, -7.59, -9.6, -10.28, -9.83, -10.0, -10.4, -8.85, -0.0, -4.24, -4.38, -0.0, -0.0, 10.12, 16.12, 7.49, 0.0, -12.33, -5.4, 7.9, 7.9, 8.41, 7.9, 6.97, 7.9, 9.6, 8.8, 8.8, 8.8, 9.42, 9.42, 9.42, 9.42, 9.76, 9.76, 10.12, 10.46, 10.46, 10.78, 11.11, 11.49, 11.47, 11.14, 11.14, 11.14, 11.2, 11.2, 10.86, 11.25, 11.25, 11.64, 12.03, 12.03, 12.42, 12.42, 12.79, 12.99, 13.39, 13.77, 13.77, 14.1, 14.31, 14.31, 14.11, 14.07, 13.8, 13.8, 13.34, 13.34, 12.96, 12.96, 12.52, 12.52, 12.52, 12.07, 12.07, 12.07, 12.07, 11.62, 11.62, 11.62, 11.62, 11.18, 10.73, 9.97, 9.54, 8.91, 8.48, 8.48, 7.07, 5.69, 5.69, 3.4, 3.4, 3.4, 4.2, -0.0, -0.0, -0.0, -0.0, -7.27, -9.6, -9.2, -7.27, 11.18, 12.07, -0.0, -4.1, -4.1, -0.0, -0.0, 10.43, 19.28, 4.56, -23.25, -6.81, -0.0, 12.07, 8.53, 8.82, 9.84, 8.22, 0.0, 7.59, 7.27, 7.27, 7.27, 9.13, 9.13, 9.13, 9.46, 9.76, 9.76, 10.12, 10.12, 10.78, 11.11, 11.11, 11.49, 11.49, 11.49, 11.14, 11.2, 11.2, 11.2, 10.86, 11.25, 11.25, 11.64, 12.03, 12.03, 12.42, 12.81, 13.19, 13.19, 13.39, 13.77, 13.77, 14.1, 14.37, 13.88, 14.11, 14.11, 13.63, 13.8, 13.34, 13.34, 12.88, 12.88, 12.52, 12.52, 12.52, 12.07, 12.07, 12.07, 12.07, 12.07, 12.07, 12.07, 11.62, 11.18, 10.73, 10.28, 9.83, 9.39, 8.48, 8.48, 8.06, 7.2, 6.8, 5.37, 5.37, 3.4, 3.4, -0.0, -0.0, -0.0, -0.0, -7.27, -9.2, -10.28, 10.28, 10.73, 8.22, -0.0, -6.94, -3.96, -0.0, -0.0, 16.39, 15.82, 0.0, -13.14, -6.47, -0.0, 8.53, 9.67, 8.59, 8.59, 10.0, 11.18, 10.73, 10.28, 10.28, 10.28, 9.13, 9.13, 9.13, 9.46, 9.46, 9.76, 10.12, 10.43, 10.78, 10.78, 10.78, 11.49, 11.15, 11.15, 11.15, 11.2, 11.2, 11.2, 11.6, 11.25, 11.6, 12.0, 12.0, 12.41, 12.81, 12.81, 13.59, 13.97, 13.56, 13.77, 13.77, 14.1, 13.67, 13.88, 13.88, 13.67, 13.63, 13.63, 13.36, 13.34, 12.9, 12.88, 12.42, 12.42, 12.52, 12.07, 12.07, 12.07, 12.07, 12.07, 12.07, 12.07, 11.62, 11.18, 10.73, 10.28, 9.83, 9.39, 8.94, 8.94, 8.06, 7.63, 6.8, 6.8, 5.69, 5.69, 5.69, 8.05, 10.28, -0.0, -7.59, -10.73, -10.73, -10.28, 9.83, -0.0, -0.0, -3.68, -6.94, -8.85, -8.85, 13.41, 0.0, 0.0, -6.61, -14.54, -7.4, -2.93, -0.0, 10.0, 7.9, 8.22, 11.62, 11.18, 11.18, 9.83, 9.83, 9.83, 9.13, 9.13, 9.46, 9.46, 9.76, 10.12, 10.12, 10.46, 10.78, 10.78, 10.78, 11.15, 11.15, 11.15, 11.52, 11.52, 11.52, 11.52, 11.9, 11.6, 12.0, 12.0, 12.0, 12.79, 13.2, 13.59, 13.59, 13.56, 13.56, 13.89, 13.77, 13.67, 13.67, 13.67, 13.88, 13.44, 13.63, 13.19, 13.19, 12.71, 12.9, 12.88, 12.44, 12.42, 12.42, 12.07, 12.07, 12.07, 12.07, 12.07, 12.07, 12.07, 11.62, 11.18, 10.73, 10.28, 9.83, 9.39, 9.39, 8.94, 8.49, 8.05, 7.63, 7.2, 8.05, 8.05, 8.49, 8.49, 8.49, -10.73, -10.73, -10.73, -10.73, -10.28, 10.28, 10.28, -4.6, -6.2, -9.67, -10.8, -12.52, 0.0, -5.65, -4.12, -5.61, -24.59, -9.92, -7.36, -5.0, -0.0, 0.0, 0.0, -11.62, 11.62, 11.18, 10.28, 10.28, 10.28, 9.13, 9.13, 9.46, 9.46, 9.8, 9.8, 9.8, 10.46, 10.46, 10.46, 10.46, 10.81, 11.15, 11.15, 11.52, 11.52, 11.52, 12.26, 12.26, 12.26, 12.65, 12.65, 12.79, 12.79, 13.2, 13.2, 13.59, 13.19, 13.56, 13.56, 13.47, 13.35, 13.67, 13.67, 13.15, 13.44, 13.44, 12.94, 13.19, 12.71, 12.71, 12.88, 12.44, 12.42, 12.42, 12.42, 12.07, 12.07, 12.07, 12.07, 12.07, 11.62, 11.18, 11.18, 10.73, 10.28, 9.83, 9.83, 9.39, 8.94, 8.94, 8.49, 8.05, 8.05, 8.05, 8.49, 8.49, 8.49, 8.49, 10.28, -10.28, -10.73, -9.2, -9.83, 9.83, -9.83, -8.8, -5.7, -7.59, -10.4, -12.96, 0.0, -3.79, -7.14, -4.26, 0.0, -17.19, -10.61, -8.1, -6.2, -11.62, -11.62, -12.07, 11.62, 11.18, -7.9, -7.9, -7.9, 9.13, 9.13, 9.46, 9.8, 9.8, 9.8, 9.8, 10.13, 10.13, 10.46, 10.46, 11.15, 11.15, 11.15, 11.87, 11.87, 11.87, 12.26, 12.26, 12.26, 12.65, 12.65, 13.03, 13.03, 13.02, 13.2, 13.19, 13.19, 13.15, 13.15, 13.15, 13.35, 13.35, 13.25, 13.15, 13.44, 13.01, 12.94, 13.19, 12.71, 12.71, 12.66, 12.22, 12.44, 12.42, 12.42, 11.98, 11.98, 12.07, 12.07, 12.07, 11.62, 11.18, 11.18, 10.73, 10.28, 9.83, 9.83, 9.39, 8.94, 8.94, 8.49, 8.05, 8.49, 8.49, 8.49, 8.94, 8.94, 8.94, 10.28, 10.28, -10.28, -6.95, 9.39, 9.39, -9.39, -8.4, -8.4, -4.6, -8.22, 12.52, 0.0, 0.0, -4.23, -4.65, 0.0, -14.86, -16.39, -11.38, -9.8, -10.79, -12.96, -12.3, -11.6, -8.85, -8.85, -8.85, -8.85, 9.15, 9.15, 9.48, 9.8, 9.8, 9.8, 10.13, 10.13, 10.13, 10.46, 10.81, 11.15, 11.15, 11.49, 11.87, 11.87, 11.87, 12.26, 12.26, 12.26, 12.65, 12.27, 12.65, 13.03, 13.02, 13.02, 12.81, 12.79, 12.79, 13.15, 13.15, 13.35, 13.35, 13.25, 13.15, 12.72, 12.94, 12.94, 12.51, 12.71, 12.71, 12.71, 12.66, 12.22, 12.42, 12.42, 11.98, 11.98, 11.98, 11.98, 11.51, 11.18, 11.18, 10.73, 10.73, 10.28, 10.28, 9.83, 9.39, 8.94, 8.49, 8.49, 8.49, 8.49, 8.49, 8.49, 8.94, 8.94, 8.94, 8.94, 9.39, 11.18, 10.28, 9.39, 9.39, -9.39, -9.39, -9.83, -0.0, -0.0, 12.52, 13.41, 0.0, 0.0, 0.0, 0.0, 0.0, -17.59, -16.96, -13.76, -13.39, -14.75, -13.01, -12.72, -11.6, -11.6, -11.6, -11.6, 9.48, 9.48, 9.48, 9.48, 9.48, 9.8, 10.13, 10.13, 10.13, 10.46, 10.81, 11.15, 11.15, 11.49, 11.87, 11.87, 11.87, 12.26, 12.26, 12.26, 12.27, 12.27, 12.65, 13.03, 12.65, 13.02, 12.42, 12.79, 12.79, 13.15, 12.99, 12.99, 12.93, 12.79, 13.15, 12.72, 12.94, 12.51, 12.51, 12.42, 12.71, 12.71, 12.71, 12.66, 12.22, 12.44, 12.0, 11.98, 11.98, 11.98, 11.53, 11.18, 11.18, 10.73, 10.28, 10.28, 10.28, 9.83, 9.39, 8.94, 8.94, 8.49, 8.49, 8.49, 8.49, 8.49, 8.94, 8.94, 8.94, 8.94, 9.39, 7.9, 0.0, 10.73, 9.39, -9.83, -9.83, -9.83, -7.27, -0.0, 12.07, 0.0, 0.0, 0.0, 0.0, 0.0, 0.0, 0.0, 0.0, -16.79, -17.88, -16.54, -14.75, -12.3, -11.6, -11.6, -11.6, -11.6, 9.48, 9.48, 9.48, 9.48, 9.48, 9.48, 9.8, 10.13, 10.13, 10.46, 10.81, 11.15, 11.15, 11.52, 11.52, 11.52, 11.52, 11.9, 11.9, 11.9, 12.27, 12.27, 12.27, 12.65, 12.65, 12.62, 12.42, 12.79, 12.79, 12.79, 12.99, 12.58, 12.93, 12.79, 12.72, 12.72, 12.6, 12.51, 12.51, 12.42, 12.42, 12.71, 12.71, 12.27, 12.22, 12.22, 11.78, 12.0, 11.98, 11.53, 11.53, 11.09, 11.06, 10.62, 10.73, 10.28, 10.28, 9.83, 9.39, 9.39, 8.94, 8.49, 8.49, 8.49, 8.49, 8.49, 8.94, 8.94, 8.94, 8.94, 9.39, 8.91, 6.64, 11.62, 9.39, 0.0, -6.95, -9.83, -10.28, -10.73, 11.62, 0.0, 6.2, 8.18, 8.4, 6.07, 4.73, 7.8, 9.2, 0.0, 0.0, -7.8, -11.38, -10.12, 0.0, 12.96, 12.96, 12.96, 9.48, 9.48, 9.48, 9.48, 9.48, 9.48, 9.8, 10.13, 10.13, 10.46, 10.81, 11.15, 11.15, 11.52, 11.52, 11.52, 11.52, 11.9, 11.9, 11.9, 12.27, 12.27, 12.27, 12.65, 12.65, 12.62, 12.42, 12.79, 12.79, 12.79, 12.99, 12.58, 12.93, 12.79, 12.72, 12.72, 12.6, 12.51, 12.51, 12.42, 12.42, 12.71, 12.71, 12.27, 12.22, 12.22, 11.78, 12.0, 11.98, 11.53, 11.53, 11.09, 11.06, 10.62, 10.73, 10.28, 10.28, 9.83, 9.39, 9.39, 8.94, 8.49, 8.49, 8.49, 8.49, 8.49, 8.94, 8.94, 8.94, 8.94, 9.39, 8.91, 6.64, 11.62, 9.39, 0.0, -9.83, -9.83, -10.28, -10.73, 11.62, 0.0, 9.48, 10.12, 12.87, 16.09, 14.22, 12.61, 14.86, 12.61, 9.0, 10.66, 12.33, 13.02, 12.58, 12.96, 12.96, 12.96]}, {"header": {"dx": 0.06612293990616946, "dy": 0.0552356325346848, "nx": 98, "ny": 59, "la1": 35.046912555036876, "la2": 31.78801023549047, "lo1": -121.43107172385933, "lo2": -114.95102361305473, "refTime": "2026041715", "parameterCategory": 1, "parameterNumber": 3}, "data": [-17.62, -16.39, -16.39, -15.53, -14.51, -14.79, -13.8, -12.52, -12.16, -12.65, -12.27, -10.73, -7.69, -4.1, -2.37, -3.19, -2.82, -3.07, -2.28, -2.45, -0.0, -0.0, 1.64, 1.84, 4.15, 5.2, 2.93, 3.96, -0.0, -0.0, -0.0, -12.96, -12.52, -10.0, -7.27, -4.4, 0.0, 0.0, -9.39, -10.28, -1.93, -0.0, 1.64, -0.0, -0.0, -2.59, -7.07, -11.2, -12.01, -9.8, -10.12, -8.18, -8.43, -8.68, -11.06, -11.06, -8.68, -11.06, -11.06, -15.65, -15.65, 0.0, 0.0, 0.0, -10.75, -15.65, -16.09, -16.09, -16.09, -16.09, -15.27, -13.02, -11.06, -11.06, -11.06, -9.39, -10.43, -10.12, -11.33, -12.27, -11.9, -9.48, -9.17, -7.82, -7.54, -5.98, -2.93, 0.0, -4.15, -9.3, -12.66, -14.3, -14.7, -15.05, -14.5, -14.06, -13.18, -12.74, -17.62, -16.85, -16.85, -16.44, -15.59, -15.19, -13.8, -12.52, -12.16, -12.65, -12.39, -11.8, -7.44, -5.6, -0.0, -0.0, -0.0, -0.0, -0.0, -0.0, -0.0, -0.0, -0.0, 3.14, 3.98, 5.0, 2.82, -0.0, -0.0, -3.96, -6.4, -12.39, -12.52, -9.83, -5.69, -0.0, 2.99, 4.96, -0.0, -0.0, -0.0, 1.66, 1.61, -0.0, -3.77, -8.16, -12.64, -11.16, -7.69, -9.22, -10.43, -10.75, -12.16, -12.16, -10.75, -12.52, -11.06, -12.65, -13.99, -15.65, -15.65, -15.2, -10.75, -10.75, -10.75, -13.99, -16.09, -16.09, -16.09, -14.39, -11.7, -8.93, -9.66, -9.12, -10.75, -10.43, -11.52, -10.12, -11.33, -12.27, -11.9, -9.48, -9.17, -7.82, -7.54, -5.98, -2.93, 0.0, -4.15, -9.3, -12.66, -14.3, -14.7, -15.05, -14.5, -14.06, -13.18, -12.74, -18.19, -17.62, -16.85, -16.44, -16.44, -15.59, -14.18, -12.87, -14.11, -13.99, -13.75, -10.79, -9.8, -9.17, -8.22, -0.0, 2.28, 3.68, 4.48, 4.1, 2.28, -0.0, -0.0, -0.0, -0.0, -0.0, -0.0, -0.0, -0.0, -0.0, -10.43, -14.42, -12.79, -2.71, 1.05, 3.52, 5.1, 6.32, 4.88, 2.28, 2.53, 1.05, -0.0, -4.03, -8.3, -10.42, -9.24, -7.79, -9.44, -11.68, -11.68, -11.68, -12.65, -11.87, -11.52, -10.75, -12.16, -11.06, -13.02, -14.84, -15.65, -15.2, -15.2, -15.2, -15.2, -15.65, -13.99, -11.06, -11.06, 0.0, -7.2, -8.93, -9.39, -10.75, -11.52, -12.27, -13.59, -12.37, -11.44, -13.19, -13.39, -11.99, -10.55, -9.27, -8.22, -5.98, -2.19, -2.19, -3.53, -8.15, -13.27, -15.9, -16.09, -14.99, -14.13, -13.15, -12.1, -11.79, -18.33, -18.19, -17.62, -17.19, -17.19, -16.54, -15.77, -15.36, -15.43, -14.6, -14.16, -13.15, -11.9, -10.41, -5.4, 3.68, 6.97, 7.24, 8.22, 10.8, 7.9, 5.0, -0.0, -0.0, -0.0, -0.0, -0.0, -0.0, -0.0, -0.0, -12.07, -12.39, -3.07, 2.57, 4.93, 4.8, 5.7, 7.59, 7.28, 3.65, 1.27, -0.0, -1.96, -5.01, -5.64, -6.2, -7.69, -9.42, -10.43, -11.2, -11.8, -12.37, -12.81, -12.27, -12.65, -11.8, -12.16, -11.06, -13.02, -11.06, -13.59, -15.2, -14.75, -14.75, -14.75, -15.2, -15.65, -11.06, 0.0, 0.0, 0.0, -8.68, -9.39, -9.22, -10.12, -11.28, -13.48, -13.59, -13.59, -12.87, -12.94, -12.85, -12.04, -10.62, -10.0, -9.3, -5.4, -3.68, -5.92, -11.06, -14.3, -16.12, -15.65, -13.19, -11.99, -12.25, -11.8, -11.68, -18.33, -18.33, -18.14, -17.19, -17.19, -16.96, -17.2, -16.76, -15.65, -15.2, -14.75, -13.59, -10.12, -5.8, -0.0, 8.53, 10.4, 11.21, 9.97, 11.21, 12.96, 12.52, 11.62, 11.62, 7.59, 8.53, 8.85, -0.0, 7.9, 9.2, 10.73, 3.53, 1.44, 1.25, -0.0, -0.0, 2.5, 6.2, 5.98, -0.0, -2.79, -0.0, -0.0, -1.72, -3.36, -5.63, -7.58, -9.31, -10.43, -11.54, -11.2, -11.64, -11.9, -12.27, -11.52, -10.43, -9.12, -9.39, -8.68, -6.8, -10.43, -10.12, -10.12, -13.19, -14.31, -16.54, -16.99, -16.54, -12.96, -14.22, -19.67, -14.88, -9.43, -7.8, -7.76, -9.17, -11.09, -12.5, -12.87, -12.21, -12.3, -12.58, -11.71, -10.7, -10.84, -11.18, -10.04, -8.22, -11.69, -14.65, -15.24, -14.84, -14.75, -9.48, -10.12, -11.72, -11.8, -11.87, -18.25, -18.33, -18.33, -17.7, -17.7, -17.64, -17.2, -16.99, -16.09, -15.49, -15.2, -13.57, -0.0, -0.0, -0.0, 10.8, 11.71, 11.84, 11.21, 10.04, 10.4, 12.07, 13.41, 12.72, 12.52, 12.07, 12.07, 10.8, 9.17, 10.04, 7.87, 4.6, 1.02, -0.89, -2.93, -2.48, -2.63, -2.72, -10.75, -7.36, -5.18, -4.11, -1.25, -1.58, -2.02, -4.66, -6.6, -8.94, -10.12, -10.12, -9.8, -9.8, -10.82, -11.17, -9.22, -7.59, -6.6, -3.58, -3.69, -4.66, -0.0, -9.48, -11.8, -13.03, -13.8, -15.77, -16.91, -15.36, -14.75, -17.99, -21.38, -20.12, -17.62, -14.42, -11.93, -10.89, -10.09, -10.99, -12.04, -12.18, -11.34, -11.11, -11.36, -11.49, -11.44, -11.44, -13.44, -15.19, -16.22, -16.28, -15.41, -15.53, -15.65, -11.6, -11.26, -11.99, -12.18, -11.87, -18.03, -18.24, -18.33, -17.88, -17.88, -17.88, -17.43, -17.43, -16.37, -15.49, -15.2, -13.86, 0.0, 0.0, 13.41, 10.4, 11.45, 12.52, 11.2, 8.53, -0.0, 0.0, 13.86, 12.96, 12.52, 11.62, 11.62, 10.8, 11.87, 8.58, 7.9, 3.87, 1.09, -0.85, -2.71, -4.1, -5.6, -8.05, -11.62, -9.97, -10.01, -6.3, -7.36, -8.83, -9.77, -8.43, -8.28, -8.43, -9.8, -9.8, -10.12, -9.8, -10.12, -7.59, -5.31, -2.72, -2.81, -0.0, -0.0, -0.0, -0.0, -7.44, -11.87, -13.39, -14.36, -15.2, -16.12, -15.47, -14.53, -16.96, -20.04, -19.47, -16.99, -16.35, -15.68, -14.91, -12.65, -11.37, -11.72, -11.99, -10.8, -12.21, -13.59, -14.28, -15.08, -16.73, -18.57, -18.94, -18.24, -17.35, -16.48, -17.43, -14.84, -10.47, -11.37, -11.8, -11.87, -12.39, -17.35, -17.53, -17.77, -17.88, -17.88, -17.88, -17.43, -16.82, -16.37, -15.49, -15.2, -13.86, -14.3, 0.0, 9.8, 12.07, 12.52, 13.41, 12.96, 0.0, 0.0, 0.0, 0.0, 0.0, 0.0, 0.0, -0.0, 12.52, 10.4, 10.6, 7.9, 5.2, -0.0, -1.52, -4.15, -5.35, -6.0, -7.9, -12.27, -11.28, -11.18, -7.54, -9.48, -10.69, -11.1, -11.38, -9.39, -8.28, -10.43, -10.12, -8.85, -8.05, -6.2, -5.15, -2.72, -2.72, -0.0, -0.0, -0.0, -0.0, -0.0, -8.05, -11.87, -13.58, -13.97, -14.75, -15.61, -15.04, -13.99, -14.99, -17.59, -18.27, -16.09, -15.65, -15.16, -14.42, -13.8, -12.25, -11.12, -11.9, -13.16, -13.37, -13.91, -15.34, -17.36, -19.58, -20.02, -18.84, -18.08, -16.54, -16.09, -15.71, -11.16, -11.28, -11.72, -11.76, -11.45, -12.68, -16.96, -17.25, -17.53, -17.77, -17.74, -17.7, -17.26, -16.33, -16.05, -15.61, -15.08, -13.86, -15.65, -13.41, 0.0, 12.96, 13.41, 13.41, 12.96, 12.52, 12.52, 11.2, 11.6, 13.86, 0.0, 0.0, -0.0, 10.73, 10.8, 8.93, 6.45, 3.82, -3.04, -5.4, -5.92, -5.45, -5.95, -8.24, -10.68, -11.18, -12.52, -5.6, -7.82, -10.09, -10.12, -9.8, -10.6, -12.01, -12.36, -12.16, -10.43, -9.17, -7.44, -4.38, -3.36, -0.0, -0.0, -0.0, -0.0, -0.0, -2.45, -6.8, -10.75, -12.22, -12.57, -13.05, -14.51, -14.94, -14.31, -14.31, -16.09, -16.54, -16.41, -15.55, -14.68, -14.25, -13.67, -12.63, -12.58, -12.94, -13.76, -12.65, -12.27, -13.35, -15.56, -16.89, -17.43, -14.79, 15.27, -0.0, -12.79, -12.58, -11.33, -11.5, -11.77, -11.87, -11.76, -11.8, -16.66, -16.96, -17.13, -17.46, -17.35, -17.35, -16.91, -15.91, -15.07, -15.07, -15.18, -14.75, -13.67, -12.58, -0.0, 11.99, 13.15, 13.86, 12.39, 11.6, 8.85, 8.85, 11.6, 13.41, 13.41, -0.0, 9.83, 11.62, 9.48, 3.82, 5.6, -0.0, -6.2, -7.24, -6.45, -5.2, -5.52, -6.79, -9.67, -11.87, -11.21, -5.6, -3.82, -6.45, -7.36, -8.3, -8.18, -9.16, -11.06, -12.73, -11.8, -10.43, -7.93, -3.36, -0.0, -0.0, 1.72, 1.83, -0.0, -0.0, -5.48, -6.14, -9.67, -9.66, -11.38, -12.33, -12.64, -11.38, 0.0, 0.0, -10.43, -11.06, -11.38, -11.38, -13.02, -11.75, -12.6, -11.96, -12.3, -13.99, -15.39, -13.76, -13.01, -12.3, -11.39, -11.99, -13.32, 14.3, 13.88, 12.3, -12.96, -12.39, -12.22, -11.77, -11.6, -12.04, -12.83, -12.41, -16.27, -16.54, -16.8, -17.13, -16.96, -16.96, -16.32, -14.79, -14.79, -15.27, -14.84, -14.23, -14.11, -14.3, -0.0, 4.52, 6.6, -0.0, 10.43, 10.43, 4.95, 4.95, 6.6, 5.6, 9.17, 7.59, 7.27, 9.83, 7.27, -0.0, -0.0, 0.0, 0.0, -5.46, -5.21, -6.76, -8.22, -8.93, -8.69, -10.01, -9.17, -6.44, -5.98, -6.21, -6.16, -5.86, -5.72, -6.31, -8.1, -8.05, -8.57, -5.65, -3.9, -1.78, -0.0, 1.65, 3.59, 1.96, -0.0, -4.24, -8.97, -9.2, -9.92, -9.66, -5.98, -0.0, 6.08, 15.99, 14.42, 9.17, 3.36, 0.0, -2.28, -6.34, -8.06, -8.91, -9.08, -10.18, -13.2, -14.31, -15.44, -15.59, -13.39, -12.48, -10.87, -8.18, -5.19, 0.0, 1.77, 1.9, 0.0, -12.27, -12.52, -12.08, -12.56, -13.78, -13.65, -13.18, -16.02, -16.09, -16.8, -16.6, -16.6, -16.34, -15.93, -15.11, -15.11, -15.11, -15.07, -14.65, -14.84, -15.65, -0.0, -0.0, -0.0, -0.0, -0.0, -0.0, -0.0, -0.0, -0.0, 7.0, 6.0, 5.6, -0.0, 7.6, 7.59, -0.0, -5.0, 0.0, 10.73, 4.6, -1.45, -5.52, -6.7, -7.72, -7.26, -7.41, -7.28, -6.7, -5.98, -5.2, -3.39, -3.51, -3.82, -4.93, -5.8, -6.88, -5.92, -6.36, -5.94, -5.29, -0.0, -0.0, 2.22, 3.09, -0.0, -8.31, -12.64, -12.96, -12.33, -8.93, -5.65, -2.38, 3.67, 16.12, 20.12, 14.13, 8.85, 4.38, 2.09, 0.0, -4.55, -7.14, -7.72, -11.03, -12.65, -13.51, -15.02, -15.27, -15.39, -13.74, -12.69, -9.54, -6.47, -3.92, -2.09, -1.25, -1.55, -5.98, -9.08, -11.03, -12.47, -12.58, -14.21, -13.96, -15.59, -15.83, -16.09, -16.28, -15.99, -15.99, -15.59, -14.85, -14.46, -14.71, -15.07, -14.65, -14.38, -14.39, -16.54, -0.0, -0.0, -6.6, -0.0, -0.0, -0.0, -0.0, -0.0, 3.58, 2.81, 2.72, 2.63, 5.8, 5.4, -0.0, -2.71, -0.0, 4.8, 5.29, 3.25, -1.28, -4.99, -5.43, -6.41, -6.41, -6.45, -6.16, -5.54, -5.9, -3.25, -2.6, -1.91, -3.82, -4.1, -5.28, -5.25, -5.28, -5.99, -7.28, -8.43, -9.09, -5.53, -0.0, -11.38, -11.45, -13.65, -12.56, -11.35, -9.66, -9.43, -9.63, -10.0, -7.92, -0.0, 0.0, 10.0, 9.4, 2.35, 0.0, -2.83, -5.98, -9.8, -12.03, -11.96, -12.92, -13.58, -14.79, -14.74, -15.49, -13.05, -11.27, -9.76, -7.17, -5.98, -3.93, -3.36, -3.68, -5.54, -5.98, -10.01, -13.41, -12.68, -13.49, -15.59, -15.83, -15.99, -15.7, -15.7, -15.33, -14.95, -14.57, -14.85, -15.11, -15.07, -14.65, -14.65, -14.39, -15.69, -17.43, -12.33, -7.6, -11.38, -11.06, -0.0, -0.0, -0.0, -0.0, -0.0, -0.0, 2.15, 2.09, 1.96, 2.13, -0.0, 2.1, 2.71, 3.11, 3.11, -0.0, -2.39, -4.6, -4.6, -5.52, -5.52, -4.99, -5.52, -5.7, -0.0, 7.27, 6.64, 5.0, -0.0, -0.0, -2.45, -3.82, -4.48, -7.24, -7.82, -8.32, -8.29, -13.59, -21.46, -13.86, -13.37, -13.27, -13.23, -12.9, -11.7, -10.59, -9.92, -12.47, -15.17, -22.12, -23.69, -7.07, -5.8, -4.18, -6.67, -9.22, -11.7, -13.61, -13.92, -13.92, -12.7, -12.92, -13.58, -13.77, -14.33, -13.11, -12.08, -10.43, -9.43, -7.4, -5.14, -4.81, -5.2, -6.21, -6.9, -11.99, -12.96, -12.83, -15.38, -15.59, -15.74, -15.99, -15.7, -16.09, -15.33, -14.95, -15.19, -14.46, -14.71, -14.84, -15.07, -14.79, -14.18, -16.54, -17.43, -15.59, -15.59, -12.01, -7.4, -0.0, -0.0, -0.0, -0.0, -0.0, -0.0, -0.0, -0.0, 2.28, 2.06, 3.25, 2.71, -0.0, -0.0, -0.0, -2.1, -4.4, -5.0, -4.78, -4.18, -3.39, -1.93, -0.0, -0.0, 8.8, 9.83, 9.75, 10.18, 10.0, 5.2, 5.0, 7.59, 9.39, 9.83, 0.0, -5.98, -11.8, -18.17, -17.43, -12.93, -12.04, -11.88, -12.27, -12.27, -10.75, -11.7, -12.9, -12.36, -14.22, -18.39, -17.17, -14.54, -9.3, -10.3, -13.23, -14.71, -15.33, -14.57, -14.13, -13.76, -12.01, -11.63, -10.38, -10.66, -13.92, -12.79, -11.91, -10.83, -9.73, -9.12, -7.2, -6.92, -6.94, -8.59, -12.58, -12.96, -12.96, -15.38, -15.14, -15.74, -15.45, -15.45, -15.46, -15.09, -15.09, -14.57, -14.79, -14.71, -15.27, -15.27, -15.11, -15.61, -15.77, -17.43, -17.43, -16.96, -12.33, -7.8, -0.0, -0.0, -0.0, -0.0, -0.0, -0.0, -0.0, -0.0, 1.83, 2.02, 3.56, 2.02, -0.0, -0.0, -1.75, -3.25, -3.25, -4.8, -2.02, -1.33, -0.0, -0.0, -0.0, 4.4, 6.64, 6.95, 7.27, 9.2, 9.2, 10.0, 11.62, 11.62, 9.6, 8.4, 8.18, 7.27, -11.28, -14.13, -15.6, -12.04, -10.88, -8.93, -7.54, -6.7, -4.1, -6.43, -8.83, -7.98, -10.12, -19.92, -17.58, -15.18, -15.79, -13.59, -17.02, -17.74, -17.43, -16.75, -15.54, -12.96, -12.07, -10.43, -9.22, -8.07, -8.31, -12.18, -11.6, -10.94, -10.82, -10.39, -8.61, -9.17, -9.48, -10.55, -11.03, -12.35, -12.35, -14.95, -15.14, -15.23, -15.23, -14.88, -15.25, -14.82, -15.09, -15.31, -15.19, -14.39, -14.71, -15.11, -15.11, -15.19, -15.61, -16.66, -17.43, -16.91, -14.51, -7.8, -5.37, -4.12, -0.0, -0.0, 2.0, 1.78, 1.6, 1.6, 1.78, 1.73, 1.83, 2.13, -0.0, -0.0, -0.0, -1.62, -2.6, -0.0, -0.0, -0.0, -0.0, -0.0, 2.17, 3.11, 4.4, 4.6, 4.6, 7.27, 7.27, 10.28, 10.73, 11.18, 7.59, 7.59, 7.27, 7.27, 7.59, -12.07, -11.85, -11.99, -10.6, -3.39, 7.59, 10.18, 10.28, 11.62, -3.68, -6.2, -10.46, -21.9, -17.68, -15.74, -18.79, -17.23, -18.63, -19.17, -19.57, -19.08, -16.3, -13.58, -10.7, -9.12, -9.12, -9.06, -7.36, -9.42, -11.6, -11.5, -11.35, -11.03, -9.48, -9.36, -10.62, -11.72, -11.34, -12.2, -12.2, -14.95, -14.67, -15.53, -15.23, -15.23, -15.25, -15.25, -15.09, -14.71, -14.91, -14.79, -14.94, -15.36, -15.36, -15.52, -15.49, -16.76, -17.43, -16.99, -15.69, -7.4, -7.6, -4.01, -0.0, -0.0, 2.0, 1.83, 3.16, 2.88, 2.88, 2.8, 2.98, 2.81, 2.52, 2.6, 1.69, -0.0, -0.0, -0.0, -0.0, -0.0, -0.0, -0.0, -0.0, 3.25, 4.6, 4.8, 4.6, 7.27, 7.27, 10.28, 10.28, 10.28, 10.28, 7.27, 7.27, 4.6, 7.59, 10.0, -10.6, -11.45, -11.28, 0.0, 9.6, 10.18, 9.64, 9.39, 10.28, -0.0, -11.06, -16.74, -19.67, -18.66, -20.95, -17.43, -16.96, -17.74, -18.72, -19.59, -17.98, -15.59, -13.96, -12.64, -9.83, -9.89, -9.23, -9.59, -10.23, -11.5, -12.56, -12.27, -10.79, -9.81, -10.6, -12.79, -12.18, -12.04, -12.04, -14.95, -14.95, -14.67, -14.67, -14.7, -14.7, -15.25, -14.88, -15.09, -15.31, -14.52, -15.06, -15.06, -15.77, -15.36, -18.05, -16.05, -16.37, -16.09, -15.27, -11.7, -12.33, -7.4, -0.0, -0.0, -0.0, 1.61, 1.89, 3.39, 2.48, 2.35, 3.47, 3.25, 2.93, 2.71, 2.6, 1.84, 1.07, -0.0, -0.0, -0.0, -0.0, -0.0, -0.0, -0.0, -0.0, 4.8, 4.6, 4.6, 7.27, 7.27, 10.28, 10.28, 10.28, 10.28, 9.2, 7.27, 5.0, 5.4, 0.0, -10.4, -8.22, 0.0, 9.83, 9.54, 9.21, 9.39, 10.28, 10.18, 10.12, 0.0, 3.95, 8.63, 11.0, -18.33, -16.44, -16.96, -16.22, -16.96, -17.28, -14.99, -14.78, -13.89, -13.61, -13.65, -13.39, -13.46, -13.1, -12.07, -11.99, -13.44, -12.21, -11.77, -11.36, -13.15, -13.94, -13.32, -13.32, -14.78, -14.95, -14.67, -14.67, -15.04, -14.7, -14.7, -14.88, -15.45, -15.06, -14.91, -15.06, -15.06, -15.46, -15.96, -15.84, -16.15, -15.53, -16.99, -13.76, -12.33, -15.19, -7.6, -0.0, -0.0, -0.0, -0.0, 1.21, 1.25, 2.32, 2.06, 3.04, 2.71, 2.71, 2.61, 2.41, 1.76, 0.97, 0.97, -0.0, -0.0, 1.18, 1.39, 1.84, 2.19, 5.2, 4.6, 4.6, 7.27, 8.8, 8.8, 9.2, 10.73, 11.18, 9.83, 9.33, 10.0, 4.8, 0.0, 0.0, 0.0, 0.0, 10.73, 10.73, 10.28, 10.28, 9.97, 10.84, 10.04, 6.9, 5.23, 3.23, 3.41, 2.39, -6.64, -16.84, -17.36, -19.8, -17.43, -16.78, -15.1, -14.95, -15.19, -14.97, -14.79, -13.83, -12.27, -10.66, -11.09, -10.81, -12.21, -13.15, -14.53, -13.25, -13.59, -14.9, -14.47, -14.47, -14.78, -14.51, -14.51, -14.19, -14.19, -13.82, -14.7, -15.23, -14.88, -15.45, -14.67, -14.79, -15.27, -15.68, -15.68, -15.96, -16.22, -15.55, -14.75, -15.19, -15.59, -13.99, -8.93, -0.0, -0.0, -0.0, -0.0, -0.0, 1.17, 1.98, 1.91, 1.91, 1.91, 1.77, 1.91, 1.84, 1.84, 0.97, 0.97, 1.11, 1.11, 1.23, 1.39, 1.71, 4.32, 3.82, 4.4, 4.6, 7.27, 9.2, 8.8, 9.2, 10.73, 11.18, 10.73, 9.97, 10.84, 11.18, 0.0, 0.0, 0.0, 0.0, 10.73, 11.18, 10.28, 10.73, 10.52, 11.84, 12.04, 8.66, 4.95, 1.66, 0.0, -4.48, -9.76, -15.87, -17.66, -21.36, -21.61, -18.78, -17.1, -15.27, -13.81, -12.45, -12.58, -12.18, -12.18, -11.42, -10.73, -9.34, -10.56, -12.38, -14.31, -12.82, -13.59, -14.5, -14.53, -14.53, -14.4, -14.51, -14.51, -14.51, -14.19, -14.19, -14.33, -14.7, -15.23, -14.85, -14.67, -14.79, -14.79, -15.42, -15.68, -16.12, -16.39, -15.78, -16.09, -15.69, -13.39, -11.87, -5.48, -2.15, -0.0, -0.0, -0.0, -0.0, 1.25, 1.08, 1.98, 1.91, 1.91, 1.91, 1.91, 2.0, 2.08, 2.08, 1.11, 1.11, 2.42, 2.42, 2.71, 3.32, 3.53, 4.8, 4.8, 6.95, 7.27, 9.2, 9.2, 9.6, 10.18, 11.18, 10.73, 11.18, 11.62, 12.52, -0.0, 0.0, 10.28, 10.73, 11.18, 11.18, 11.18, 11.18, 11.62, 11.84, 12.71, 12.27, 9.39, 0.0, 0.0, -21.59, -10.0, -11.2, -16.58, -18.35, -20.51, -20.85, -18.31, -16.34, -15.95, -14.86, -13.35, -12.38, -11.99, -12.6, -12.27, -9.21, -9.57, -11.16, -13.02, -13.88, -13.94, -14.03, -14.47, -14.47, -14.4, -14.4, -14.4, -14.51, -14.51, -14.19, -14.19, -14.67, -14.85, -14.85, -14.47, -14.56, -15.02, -15.02, -15.42, -15.85, -16.12, -16.31, -16.44, -16.82, -14.79, -11.38, -6.6, -2.02, -1.83, -0.0, -0.0, -0.0, 1.38, 1.3, 2.2, 2.13, 1.98, 2.08, 2.08, 2.08, 2.28, 2.28, 2.52, 2.52, 2.82, 4.08, 4.58, 5.2, 5.98, 6.71, 7.59, 6.64, 6.64, 9.2, 9.2, 10.18, 10.18, 10.84, 10.73, 10.73, 11.18, 12.3, -0.0, 0.0, 0.0, 10.28, 11.62, 11.62, 11.18, 11.06, 11.46, 10.84, 11.28, 10.41, 9.8, -0.0, -0.0, -0.0, -7.89, -8.8, -10.28, -14.53, -16.48, -18.65, -19.14, -16.99, -15.65, -15.62, -14.5, -13.39, -12.87, -12.79, -13.43, -15.33, -11.95, -11.44, -12.27, -13.28, -13.88, -13.75, -13.88, -13.88, -14.0, -14.0, -14.0, -14.0, -14.06, -14.19, -14.19, -14.67, -14.67, -14.67, -14.47, -14.56, -14.56, -14.79, -15.61, -15.85, -16.24, -16.12, -16.47, -16.99, -16.12, -11.7, -8.05, -4.18, -1.77, -0.0, -0.0, -0.0, 1.42, 1.38, 1.3, 2.48, 2.32, 2.24, 2.28, 2.19, 2.19, 2.42, 2.52, 4.08, 4.58, 4.58, 6.45, 6.45, 8.22, 7.9, 8.85, 9.3, 8.93, 9.3, 9.67, 9.3, 8.93, 10.18, 9.97, 9.97, 10.14, 11.84, -0.0, 0.0, 0.0, 9.39, 11.18, 11.62, 11.18, 11.91, 11.91, 12.14, 10.0, 6.2, 3.53, -9.2, -0.0, -0.0, -16.54, -12.33, -10.09, -7.78, -13.56, -14.79, -15.69, -17.27, -17.42, -16.54, -16.97, -16.37, -15.84, -16.46, -17.5, -16.6, -14.47, -11.42, -11.69, -11.88, -13.02, -13.47, -13.15, -13.15, -14.26, -14.26, -14.0, -14.0, -14.0, -13.7, -14.19, -14.19, -14.67, -14.67, -14.75, -14.36, -14.36, -14.79, -14.79, -15.61, -15.58, -15.81, -16.31, -16.54, -16.82, -14.57, -10.33, -7.2, -4.18, -1.83, -0.0, -0.0, -0.0, 1.34, 1.34, 1.3, 2.63, 2.54, 2.45, 2.52, 2.42, 2.71, 2.71, 4.58, 4.58, 5.2, 6.2, 6.2, 7.9, 7.59, 8.22, 8.38, 7.68, 8.18, 8.93, 10.41, 8.93, 8.93, 8.55, 9.2, 9.2, 9.33, 10.4, 12.52, 7.9, 9.39, 9.83, 10.73, 11.62, 11.91, 11.45, 11.21, 9.66, 0.0, 0.0, 0.0, -0.0, -0.0, -24.79, -19.09, -13.96, -9.91, -6.4, -11.16, -13.74, -15.83, -18.72, -20.12, -19.22, -18.25, -18.44, -18.41, -16.97, -15.41, -16.82, -12.99, -11.57, -12.09, -11.31, -12.58, -12.74, -12.74, -13.89, -13.89, -13.63, -14.0, -14.0, -13.7, -13.7, -14.13, -14.51, -14.95, -14.29, -14.75, -14.36, -14.36, -14.99, -15.36, -15.2, -15.9, -16.12, -16.47, -16.99, -16.12, -13.26, -10.33, -6.16, -3.69, -1.83, -0.0, -0.0, -0.0, 1.42, 1.38, 2.63, 2.91, 2.72, 2.62, 2.82, 2.71, 4.4, 4.4, 5.0, 5.2, 6.98, 6.98, 6.7, 6.7, 7.26, 8.03, 7.68, 8.18, 9.09, 9.7, 10.01, 10.8, 9.3, 8.93, 8.55, 8.8, 9.75, 11.62, 10.8, 11.45, 9.21, 9.83, 11.18, 11.91, 11.62, 11.62, 7.19, 0.0, -3.82, -6.4, -12.01, -24.14, -19.28, -25.02, -15.49, -12.08, -7.38, -4.81, -9.48, -13.86, -16.92, -18.72, -16.97, -17.43, -16.45, -15.54, -14.72, -15.17, -16.99, -15.58, -12.94, -12.52, -11.09, -12.07, -12.74, -12.74, -13.89, -13.89, -13.89, -14.0, -14.0, -14.0, -13.7, -13.7, -14.13, -14.13, -14.57, -14.57, -14.59, -14.59, -14.59, -14.99, -15.36, -15.69, -15.9, -16.31, -16.54, -16.37, -14.79, -11.7, -8.93, -4.3, -2.15, -1.83, -0.0, -0.0, 1.48, 1.66, 1.61, 3.56, 3.44, 3.44, 3.96, 5.4, 6.21, 6.97, 6.71, 6.97, 8.22, 7.59, 7.27, 7.9, 7.9, 7.27, 7.68, 8.8, 9.32, 10.0, 9.2, 9.2, 9.58, 8.58, 8.93, 8.55, 8.4, 9.75, 12.07, 10.84, 10.84, 10.73, 12.52, 11.4, 11.21, 7.19, 4.1, 0.0, -4.1, -7.44, -8.18, -16.12, -19.52, -26.74, -18.5, -13.91, -8.76, -7.24, -5.57, -8.54, -14.18, -15.58, -17.64, -17.86, -16.99, -15.65, -15.2, -14.75, -15.2, -16.54, -16.02, -14.09, -12.5, -12.18, -12.79, -12.79, -13.89, -13.89, -13.89, -14.0, -14.0, -14.0, -14.0, -13.7, -13.7, -14.13, -14.13, -14.57, -14.57, -14.57, -14.99, -14.59, -15.15, -15.36, -15.69, -16.12, -16.47, -16.54, -15.9, -12.57, -10.05, -7.0, -4.81, -4.81, -2.43, -0.0, -0.0, 1.96, 1.9, 4.1, 3.96, 4.65, 6.44, 6.44, 7.24, 8.53, 9.3, 10.4, 10.0, 8.55, 8.18, 9.6, 9.2, 8.23, 8.43, 9.75, 10.75, 10.41, 10.05, 9.4, 10.05, 10.79, 10.6, 10.18, 9.97, 9.97, 10.6, 11.18, 11.18, 12.07, 11.4, 12.14, 9.48, 0.0, -5.4, 0.0, 0.0, -3.47, -6.9, -11.09, -15.2, -19.67, -22.11, -16.37, -10.98, -9.56, -8.12, -6.62, -7.89, -11.87, -13.39, -15.96, -15.37, -15.54, -15.65, -14.75, -14.75, -16.09, -16.05, -15.56, -14.18, -13.42, -13.03, -13.03, -13.51, -13.51, -13.51, -13.51, -13.59, -14.0, -14.0, -14.0, -14.0, -13.7, -14.13, -14.57, -14.57, -14.57, -14.57, -14.79, -14.79, -15.15, -15.36, -15.9, -16.05, -16.01, -15.97, -15.27, -12.22, -13.42, -9.12, -6.8, -2.89, -0.0, -0.0, 2.72, 2.72, 4.98, 4.81, 5.6, 7.51, 7.51, 8.53, 9.66, 10.4, 11.28, 10.84, 11.45, 11.45, 9.97, 9.11, 9.64, 10.14, 10.14, 11.06, 10.62, 9.97, 9.63, 10.05, 10.32, 11.71, 11.28, 10.41, 10.84, 10.84, 10.84, 11.71, 12.52, 11.84, 11.6, 11.88, 0.0, -11.62, -11.62, 0.0, 0.0, -1.96, -6.0, -11.44, -17.68, -21.61, -18.73, -17.26, -14.29, -9.62, -7.27, -7.63, -6.08, -10.23, -13.41, -12.92, -15.61, -15.91, -15.2, -16.09, -16.99, -16.54, -15.75, -15.83, -15.37, -14.62, -14.62, -13.51, -13.51, -13.51, -13.51, -13.88, -13.59, -13.59, -14.0, -14.0, -14.0, -14.0, -14.4, -14.81, -14.4, -14.81, -14.42, -14.79, -15.15, -15.15, -14.94, -15.38, -15.83, -15.34, -15.65, -15.65, -14.9, -13.59, -10.75, -8.18, -0.0, -0.0, 3.47, 3.36, 7.44, 7.19, 8.85, 8.85, 8.85, 8.53, 10.8, 10.8, 11.4, 11.62, 10.73, 10.96, 11.03, 10.84, 9.75, 9.75, 10.6, 10.6, 9.89, 9.89, 9.45, 9.86, 9.86, 9.46, 10.6, 11.4, 10.0, 9.6, 10.0, 12.07, 11.62, 12.07, 12.52, 13.23, 14.3, -11.18, -9.83, 10.73, 7.44, 2.28, 0.0, -5.23, -9.89, -12.59, -15.59, -17.78, -18.68, -18.24, -11.8, -9.53, -7.63, -5.86, -8.31, -13.77, -14.18, -15.05, -16.03, -15.63, -15.62, -15.63, -16.89, -16.53, -16.46, -16.07, -16.07, -13.51, -13.51, -13.51, -13.51, -13.51, -13.88, -13.59, -13.59, -13.63, -13.63, -14.0, -14.4, -14.4, -14.4, -14.4, -14.03, -14.03, -14.79, -15.15, -15.15, -15.16, -14.21, -14.7, -15.27, -15.05, -15.2, -14.75, -13.99, -12.79, -0.0, -0.0, 6.4, 6.4, 9.8, 9.48, 9.17, 10.41, 10.41, 10.41, 10.8, 11.71, 11.71, 11.62, 11.18, 10.73, 11.71, 11.71, 9.96, 9.55, 10.38, 9.96, 9.75, 9.75, 10.18, 10.18, 10.18, 9.75, 11.46, 10.18, 10.0, 10.0, 11.03, 12.07, 11.62, 11.71, 11.4, 11.62, 12.96, 0.0, 0.0, 9.39, 10.0, 7.0, 4.47, 0.0, -4.7, -1.83, 0.0, -12.92, -18.66, -20.07, -17.19, -12.89, -10.86, -9.36, -8.41, -7.93, -11.64, -14.07, -14.75, -14.73, -14.67, -15.13, -15.65, -15.95, -15.69, -16.33, -16.33, -13.15, -13.15, -13.51, -13.51, -13.51, -13.51, -13.51, -13.23, -13.23, -13.23, -13.63, -14.0, -14.4, -14.4, -14.4, -14.03, -13.65, -14.03, -14.79, -14.39, -13.81, -13.99, -13.99, -14.11, -14.23, -14.42, -14.75, -14.3, -15.65, -13.86, 0.0, 14.3, 14.3, 13.86, 12.39, 11.99, 12.3, 12.3, 11.87, 11.87, 11.71, 11.71, 11.62, 11.62, 11.18, 10.96, 10.84, 10.41, 10.41, 10.84, 10.41, 9.97, 10.41, 10.41, 9.97, 9.55, 10.96, 10.96, 10.52, 9.55, 10.04, 11.03, 11.62, 10.84, 10.4, 10.0, 9.97, 11.62, 12.52, 8.53, 9.75, 9.6, 0.0, 0.0, 2.89, 0.0, -4.52, 0.0, 0.0, -12.64, -16.69, -16.44, -15.19, -13.42, -12.4, -10.83, -9.2, -7.59, -9.16, -12.03, -13.59, -14.3, -14.72, -15.18, -16.08, -15.5, -15.81, -15.81, -13.15, -13.15, -13.15, -13.51, -13.51, -13.51, -13.51, -13.51, -13.23, -13.23, -13.23, -13.63, -14.0, -14.4, -14.0, -13.63, -14.03, -13.65, -13.65, -14.03, -13.42, -13.58, -13.38, -13.34, -13.29, -12.81, -13.99, -12.79, -12.39, -10.75, 0.0, 0.0, 13.86, 13.86, 13.86, 13.86, 13.41, 13.41, 12.96, 12.52, 12.52, 12.52, 12.07, 11.62, 11.18, 10.84, 10.84, 10.41, 10.41, 10.18, 9.75, 9.75, 10.84, 10.41, 9.97, 10.41, 10.73, 10.73, 10.28, 10.52, 9.6, 10.73, 11.62, 10.73, 10.84, 10.0, 8.93, 8.55, 8.22, 12.96, 10.04, 7.9, 0.0, -5.09, -2.8, 0.0, 0.0, 0.0, 4.38, 0.0, -7.2, -13.82, -15.63, -15.33, -13.26, -11.7, -10.05, -8.72, -9.16, -9.48, -10.12, -11.16, -13.44, -14.3, -14.3, -15.2, -15.12, -15.12, -13.15, -13.15, -13.15, -13.15, -13.51, -13.51, -13.51, -13.51, -13.51, -13.23, -13.23, -13.63, -13.63, -14.0, -13.63, -13.63, -13.26, -13.26, -13.65, -13.02, -13.42, -12.79, -12.5, -12.65, -12.09, -11.8, -11.9, -10.12, -10.43, -4.52, 0.0, 0.0, 6.0, 9.8, 12.39, 12.39, 13.86, 13.86, 13.41, 12.96, 12.96, 12.52, 12.52, 12.07, 11.62, 11.18, 11.18, 10.18, 10.18, 10.18, 10.18, 10.6, 10.73, 10.28, 10.28, 10.28, 10.28, 9.83, 10.28, 10.52, 11.87, 11.18, 11.18, 11.18, 9.97, 8.93, 8.93, 8.93, 8.22, 12.52, 11.87, 8.85, 0.0, -7.54, -8.1, -2.15, 2.42, 7.57, 6.12, 1.93, 0.0, -5.96, -9.0, -11.06, -11.06, -8.93, -8.28, -7.82, -9.31, -10.91, -10.19, -8.85, -8.85, -11.16, -13.09, -14.75, -15.11, -15.11, -13.15, -13.15, -13.15, -13.15, -13.15, -13.51, -13.51, -13.51, -13.51, -13.51, -13.23, -13.23, -13.63, -14.0, -13.63, -13.23, -12.57, -12.98, -12.98, -13.39, -13.02, -12.37, -12.05, -12.16, -11.52, -11.64, -10.86, -9.16, -7.36, -3.47, 0.0, 0.0, 4.24, 4.24, 7.44, 9.8, 9.8, 13.15, 12.72, 12.72, 12.72, 12.3, 11.87, 11.45, 12.07, 11.62, 11.18, 11.18, 11.18, 10.73, 9.6, 10.6, 10.73, 10.28, 10.73, 10.28, 9.83, 9.83, 9.83, 10.14, 9.13, 11.03, 10.73, 11.18, 11.18, 10.0, 7.59, 7.9, 7.9, 10.8, 12.52, 12.39, 0.0, -1.56, -4.77, -1.53, 1.47, 4.42, 4.99, 1.74, -1.73, -5.37, -6.35, -6.17, -8.29, -6.6, -6.1, -7.82, -8.73, -10.19, -10.61, -10.01, -8.15, -6.21, -8.3, -10.55, -14.62, -14.62, -12.78, -12.78, -13.15, -13.15, -12.78, -12.78, -13.14, -13.51, -13.51, -13.51, -13.23, -13.23, -13.63, -13.23, -13.63, -12.92, -12.57, -12.57, -12.57, -12.98, -12.3, -11.95, -12.05, -11.33, -10.43, -10.43, -9.42, -8.31, -7.1, -4.52, -2.35, 0.0, 2.72, 3.25, 6.0, 6.0, 7.44, 9.48, 11.16, 11.16, 11.16, 10.79, 12.3, 11.2, 10.8, 10.8, 11.62, 11.62, 11.18, 11.18, 10.73, 9.6, 10.18, 10.73, 10.28, 9.83, 9.83, 9.83, 9.83, 10.28, 10.08, 8.3, 10.18, 9.75, 10.28, 10.0, 9.2, 7.59, 7.9, 10.0, 12.96, 11.6, 3.79, 1.69, 0.0, -1.45, 0.0, 0.0, 0.0, -1.98, -4.36, -6.52, -7.1, -6.87, -7.11, -6.3, -6.3, -6.63, -7.28, -8.3, -9.17, -9.17, -8.44, -5.8, -3.44, -5.11, -12.87, -12.87, -12.78, -12.78, -13.15, -12.78, -12.78, -12.78, -13.14, -13.14, -13.51, -13.51, -13.23, -13.23, -13.23, -12.92, -12.92, -12.92, -12.57, -12.57, -12.22, -12.22, -12.3, -11.6, -11.2, -10.43, -9.92, -9.87, -8.78, -7.93, -6.4, -5.02, -2.02, 0.0, 0.0, 2.28, 2.72, 4.98, 6.0, 8.05, 9.48, 9.48, 9.48, 10.79, 10.41, 11.6, 10.0, 8.53, 8.53, 8.22, 8.22, 11.18, 11.18, 10.73, 10.73, 10.73, 9.83, 9.83, 9.83, 9.39, 9.83, 9.83, 9.83, 9.39, 10.28, 9.83, 10.73, 11.18, 8.8, 9.75, 10.18, 10.18, 11.62, 11.6, 4.95, 8.4, 4.56, 0.0, -5.46, -5.96, -9.08, -10.0, -8.8, -10.46, -10.75, -9.17, -7.85, -7.78, -8.05, -6.87, -6.43, -6.43, -6.43, -7.11, -8.05, -6.65, -5.8, -5.11, -4.71, -7.79, -12.78, -12.78, -12.43, -12.78, -12.78, -12.78, -12.78, -12.78, -13.14, -13.23, -13.23, -12.87, -12.87, -12.57, -12.92, -12.57, -12.57, -11.79, -11.79, -12.22, -11.5, -11.5, -10.75, -10.43, -9.92, -9.06, -8.2, -7.36, -5.81, -4.52, -1.77, 0.0, 0.0, 0.0, 2.28, 2.28, 4.98, 6.9, 8.05, 8.05, 9.48, 7.19, 10.41, 9.17, 7.9, 8.53, 8.53, 8.53, 5.2, 5.0, 7.9, 10.73, 10.73, 10.28, 9.83, 9.83, 9.39, 9.39, 9.39, 9.83, 9.83, 9.39, 10.73, 9.39, 9.83, 10.73, 10.73, 9.97, 10.41, 11.18, 11.18, 12.96, 6.6, 10.89, 15.45, 10.2, -6.6, -9.12, -12.29, -12.57, -13.59, -12.16, -11.87, -11.33, -10.65, -8.59, -8.05, -6.88, -5.28, -5.28, -4.71, -5.45, -6.51, -6.0, -6.65, -6.43, -6.0, -4.71, -12.78, -12.78, -12.43, -12.43, -12.78, -12.78, -12.78, -12.49, -12.49, -12.87, -12.87, -12.87, -12.5, -12.5, -12.5, -12.92, -12.56, -12.22, -11.38, -11.06, -11.06, -10.75, -10.27, -9.97, -9.44, -8.58, -7.68, -6.85, -5.31, -4.11, -3.1, -1.58, 0.0, 0.0, 0.0, 2.02, 4.38, 4.24, 4.98, 4.98, 6.0, 7.19, 7.19, 8.53, 9.17, 6.45, 8.53, 6.7, 6.45, 6.2, 6.2, 8.93, 10.18, 9.75, 9.33, 9.33, 8.91, 8.94, 9.39, 9.21, 9.64, 9.39, 7.6, 9.83, 10.28, 10.28, 9.83, 9.97, 10.52, 11.18, 11.18, 10.4, 13.86, 13.99, 18.66, 25.45, 7.63, -0.0, -14.3, -13.86, -11.99, -9.48, -8.05, -6.9, -7.13, -6.4, -5.63, -4.05, -5.63, -4.87, -4.87, -4.38, -6.2, -6.73, -7.11, -7.79, -7.54, -6.0, -12.78, -12.78, -12.43, -12.43, -12.43, -12.43, -12.49, -12.49, -12.49, -12.49, -12.87, -12.92, -12.5, -12.5, -12.5, -12.12, -12.12, -11.79, -11.38, -10.61, -10.31, -9.82, -9.53, -8.99, -8.4, -7.93, -7.21, -6.4, -4.89, -3.76, -2.81, -1.38, -1.58, 0.0, 0.0, 2.02, 1.96, 2.28, 4.38, 5.15, 6.0, 5.8, 7.19, 6.94, 8.85, 7.44, 8.22, 7.9, 7.59, 6.44, 6.44, 8.23, 8.23, 9.2, 8.18, 7.81, 8.91, 8.67, 8.67, 9.21, 9.21, 9.21, 10.73, 9.83, 9.83, 10.28, 9.83, 10.18, 9.97, 11.18, 11.62, 11.62, 12.96, 13.86, 15.65, 9.2, 5.0, 5.35, -0.0, -0.0, 14.75, 6.6, 2.15, 0.0, 0.0, -1.68, -2.89, -3.2, -4.66, -4.52, -4.11, -5.31, -5.73, -5.73, -7.44, -6.87, -7.54, -7.54, -12.43, -12.43, -12.43, -12.43, -12.43, -11.77, -12.11, -12.49, -12.49, -12.16, -12.92, -12.92, -12.5, -12.5, -12.12, -12.12, -12.12, -11.38, -11.38, -10.61, -10.31, -9.82, -8.99, -8.99, -8.4, -7.73, -6.78, -6.4, -5.5, -4.89, -3.76, -2.81, -1.42, 0.0, 0.0, 0.0, 0.0, 2.02, 2.35, 2.72, 2.72, 3.25, 5.8, 5.8, 5.8, 5.8, 7.24, 7.59, 7.27, 6.17, 7.27, 7.87, 7.87, 7.87, 6.64, 7.81, 7.44, 8.67, 8.67, 8.67, 9.21, 8.77, 8.33, 9.83, 9.83, 9.83, 10.28, 9.75, 9.97, 10.84, 11.28, 10.84, 12.96, 12.52, 14.75, 11.38, 5.31, 7.7, 19.91, 20.82, 15.28, 10.98, 7.58, 3.01, 1.45, 0.0, -2.64, -3.76, -5.48, -5.31, -5.31, -5.92, -6.2, -6.0, -6.3, -5.8, -5.8, -5.8, -12.07, -12.07, -12.43, -12.43, -11.77, -11.77, -12.11, -12.11, -12.16, -12.16, -12.5, -12.5, -12.5, -12.12, -12.12, -11.7, -10.95, -11.38, -11.38, -10.31, -9.82, -9.53, -8.99, -8.4, -8.4, -7.73, -6.78, -5.99, -5.5, -4.52, -3.76, -2.56, -1.42, 0.0, 0.0, 0.0, 0.0, 0.0, 0.0, 0.0, 2.72, 2.63, 3.25, 5.8, 5.8, 5.8, 5.6, 5.2, 5.95, 7.27, 6.95, 6.95, 6.64, 6.64, 6.64, 7.44, 8.0, 7.6, 8.24, 8.67, 8.77, 8.77, 8.77, 10.73, 9.83, 9.83, 10.28, 10.18, 9.97, 10.84, 10.0, 9.6, 9.67, 9.17, 13.41, 13.59, 8.0, 13.14, 21.81, 19.28, 17.07, 13.74, 9.51, 4.59, 1.51, 0.0, -2.57, -3.88, -6.4, -6.4, -6.2, -5.73, -5.33, -4.58, -4.81, -5.27, -5.27, -5.27, -12.07, -12.07, -12.07, -12.14, -11.77, -11.77, -11.77, -11.44, -12.16, -12.16, -12.16, -12.16, -12.12, -11.79, -11.79, -10.95, -10.95, -10.65, -10.18, -10.31, -9.53, -9.53, -8.99, -8.4, -7.73, -7.5, -6.78, -5.99, -5.14, -4.52, -3.47, -2.56, -1.3, -1.3, 0.0, 0.0, 0.0, 0.0, 0.0, 0.0, 0.0, 2.72, 2.63, 2.54, 2.54, 3.04, 3.04, 5.4, 5.2, 6.2, 5.7, 5.46, 5.46, 5.21, 6.64, 6.01, 6.01, 5.69, 6.7, 7.6, 8.24, 8.77, 8.3, 8.24, 10.73, 9.83, 9.83, 8.91, 9.2, 9.6, 9.67, 9.2, 7.9, 8.85, 9.48, 14.3, 8.93, 8.2, 12.08, 17.52, 19.24, 15.47, 9.63, 3.35, 0.0, -1.37, -2.79, -4.23, -5.64, -6.73, -5.63, -4.65, -4.81, -3.73, -3.73, -4.65, -4.65, -4.65, -12.07, -12.07, -12.07, -11.8, -11.77, -11.44, -11.44, -11.44, -11.44, -12.16, -12.16, -11.79, -11.79, -11.79, -11.79, -10.65, -10.65, -10.18, -9.89, -9.89, -9.39, -8.57, -8.57, -8.4, -7.5, -6.78, -5.99, -5.99, -5.14, -4.21, -3.47, -2.35, -2.35, -1.3, -1.42, -1.42, -1.58, -1.77, 0.0, 0.0, 0.0, 0.0, 2.2, 2.54, 2.54, 2.45, 2.37, 2.93, 2.82, 2.82, 2.71, 5.95, 5.7, 5.46, 5.46, 6.32, 6.32, 6.01, 5.69, 6.7, 7.6, 7.6, 8.0, 9.11, 8.67, 10.28, 9.83, 8.94, 8.18, 8.23, 7.27, 8.93, 8.22, 8.85, 9.48, 13.86, 6.8, 5.98, 8.87, 12.51, 16.93, 13.79, 6.43, 1.62, 0.0, -1.47, -2.79, -4.23, -5.81, -5.81, -4.98, -4.24, -3.96, -3.6, -4.65, -4.48, -4.48, -4.48, -12.07, -12.07, -11.8, -11.8, -11.44, -11.44, -11.11, -11.44, -11.44, -11.44, -11.47, -11.47, -11.47, -11.47, -11.06, -10.65, -10.65, -9.89, -9.89, -9.39, -8.83, -8.57, -7.74, -7.1, -7.1, -6.4, -5.63, -4.81, -5.14, -4.21, -3.22, -3.47, -2.35, -2.56, -2.56, -1.42, -1.58, -1.77, 0.0, 0.0, 0.0, 0.0, 0.0, 2.13, 2.13, 2.45, 2.37, 2.37, 2.28, 2.82, 2.71, 2.6, 2.6, 4.6, 5.46, 5.46, 4.96, 6.01, 5.69, 6.7, 6.7, 7.6, 7.6, 8.3, 8.77, 9.83, 9.39, 9.39, 8.8, 8.18, 7.27, 7.9, 8.22, 8.85, 11.6, 13.41, 14.3, 8.43, 10.05, 10.33, 12.02, 9.63, 7.05, 5.93, 1.78, 0.0, -4.34, -4.95, -5.48, -5.8, -4.65, -3.44, -2.93, -3.82, -4.48, -4.48, -4.48, -4.48, -12.07, -12.07, -11.8, -11.1, -11.44, -11.11, -11.11, -11.11, -11.11, -11.06, -11.06, -11.47, -11.47, -11.47, -11.06, -10.34, -10.34, -9.89, -9.89, -8.99, -8.72, -7.59, -7.36, -6.73, -7.1, -6.4, -5.63, -5.63, -4.81, -4.21, -4.21, -3.22, -3.47, -3.76, -2.56, -2.81, -1.58, -1.58, 0.0, 0.0, 0.0, 0.0, 0.0, 0.0, 0.0, 2.06, 2.37, 0.0, 0.0, 2.28, 2.71, 2.71, 2.6, 2.6, 2.49, 5.46, 5.21, 4.96, 6.01, 5.69, 6.32, 6.7, 7.6, 8.3, 8.77, 10.28, 10.28, 9.83, 9.83, 6.95, 7.27, 9.6, 10.4, 10.8, 11.2, 13.41, 13.86, 13.57, 11.8, 12.52, 13.23, 11.16, 11.8, 8.09, 0.0, -3.53, -5.81, -5.8, -5.11, -3.96, -4.65, -4.48, -3.68, -4.4, -3.92, -3.77, -3.77, -3.77, -11.45, -11.45, -11.45, -11.1, -11.1, -10.78, -10.43, -11.11, -10.75, -10.75, -10.75, -10.75, -10.75, -10.75, -10.75, -10.34, -10.34, -9.89, -9.89, -9.11, -9.11, -7.36, -7.36, -6.73, -6.73, -6.4, -5.63, -5.63, -4.81, -5.14, -4.21, -4.66, -3.58, -3.88, -2.56, -2.81, -1.42, -1.53, 0.0, 0.0, 0.0, 0.0, 0.0, 0.0, 0.0, 0.0, 0.0, 0.0, 0.0, 2.28, 2.19, 2.19, 2.19, 2.6, 2.49, 2.49, 5.46, 5.21, 4.71, 5.69, 6.7, 6.32, 7.2, 8.24, 8.33, 8.94, 9.83, 9.83, 9.83, 6.95, 4.4, 7.27, 10.0, 10.8, 11.2, 11.6, 13.41, 13.41, 13.88, 14.31, 14.84, 13.23, 14.22, 4.12, -9.73, -11.85, -7.79, -6.42, -5.2, -4.93, -4.75, -5.98, -3.98, -3.98, -3.25, -3.11, -3.11, -3.11, -11.45, -11.45, -11.45, -11.1, -10.78, -10.78, -10.43, -10.43, -10.07, -10.75, -10.75, -10.75, -10.75, -10.34, -10.34, -10.65, -9.89, -9.89, -9.6, -9.11, -8.84, -7.93, -7.36, -6.73, -7.1, -6.4, -6.4, -5.63, -5.63, -5.14, -5.3, -4.66, -4.66, -3.58, -2.56, -2.56, -1.42, -1.38, 0.0, 0.0, 0.0, 0.0, 0.0, 0.0, 0.0, 0.0, 0.0, 0.0, 0.0, 0.0, 0.0, 0.0, 2.19, 2.6, 2.6, 2.49, 3.11, 5.21, 4.96, 4.71, 6.7, 6.32, 6.32, 7.81, 7.81, 8.94, 9.39, 9.2, 10.28, 10.28, 4.6, 3.11, 4.4, 7.9, 8.53, 11.2, 11.6, 12.96, 13.86, 14.75, 14.75, 13.99, 11.06, 0.0, -17.03, -17.08, -14.42, -10.73, -7.59, -6.5, -6.97, -7.44, -6.71, -5.95, -2.49, -2.39, -2.39, -2.39, -11.45, -11.1, -10.77, -10.77, -10.46, -10.46, -10.12, -10.07, -10.07, -10.07, -10.43, -10.43, -10.34, -10.65, -10.65, -10.34, -9.89, -9.6, -9.6, -8.84, -8.84, -8.31, -7.74, -7.74, -7.1, -7.1, -6.4, -6.4, -6.18, -5.3, -5.3, -4.66, -4.66, -3.58, -2.56, -2.56, -1.3, -1.38, -1.38, 0.0, 0.0, 0.0, 0.0, 0.0, 0.0, 0.0, 0.0, 0.0, 0.0, 0.0, 0.0, 0.0, 0.0, 2.6, 2.6, 2.49, 2.39, 2.97, 4.96, 4.96, 6.01, 5.69, 6.32, 7.21, 7.21, 6.79, 8.4, 9.39, 9.83, 10.28, 7.59, 4.8, -0.0, -0.0, 5.0, 5.2, 8.85, 12.96, 12.72, 13.15, 14.3, 14.3, 10.12, -5.37, -26.22, -21.9, 12.33, 10.8, -7.9, -7.9, -7.36, -7.9, -9.3, -7.9, -4.8, -4.4, -4.4, -4.4, -10.77, -10.77, -10.77, -10.77, -10.46, -10.46, -10.12, -9.76, -9.76, -10.07, -10.37, -9.95, -10.65, -10.34, -10.34, -10.34, -9.6, -9.6, -9.31, -8.84, -8.84, -8.31, -7.74, -7.74, -7.1, -7.1, -6.4, -6.99, -6.18, -5.3, -5.3, -4.34, -3.58, -3.58, -2.35, -2.56, -1.25, -1.25, -1.33, -1.33, 0.0, 0.0, 0.0, 0.0, 0.0, 0.0, 0.0, 0.0, 0.0, 0.0, 0.0, 0.0, 0.0, 0.0, 0.0, 2.49, 2.39, 2.97, 2.83, 2.83, 4.71, 5.69, 5.69, 6.8, 6.8, 6.8, 8.4, 9.39, 9.83, 9.39, 9.83, 7.27, 4.8, 4.6, 7.27, 0.0, 0.0, 12.52, 12.3, 12.3, 13.41, 13.86, 10.43, -19.28, -27.34, -0.0, 17.02, 14.75, 0.0, -8.53, -7.56, -8.44, -8.22, -11.62, -7.59, -7.27, -7.27, -7.27, -10.43, -10.43, -10.43, -10.13, -10.46, -10.46, -10.12, -10.12, -10.07, -10.37, -10.37, -9.95, -9.95, -9.95, -10.34, -9.6, -9.6, -9.6, -9.31, -8.84, -8.84, -8.31, -7.74, -7.74, -7.1, -7.32, -6.6, -6.6, -6.18, -5.3, -5.3, -4.34, -3.32, -3.47, -2.35, -2.35, -2.48, -1.25, -1.33, -1.33, -1.43, -1.43, 0.0, 0.0, 0.0, 0.0, 0.0, 0.0, 0.0, 0.0, 0.0, 0.0, 0.0, 0.0, 0.0, 0.0, 0.0, 0.0, 2.83, 2.83, 2.69, 3.6, 3.4, 5.37, 5.37, 6.8, 6.8, 7.6, 10.28, 10.28, 10.28, 7.27, 4.6, -0.0, 0.0, 0.0, 8.22, 12.07, 10.41, 11.87, 12.96, 13.86, -8.2, -21.1, -26.82, 17.52, 16.19, 13.41, 8.53, -6.45, -7.15, -7.15, -5.0, 0.0, 0.0, 0.0, 0.0, 0.0, -10.43, -10.43, -10.43, -10.13, -10.13, -10.46, -10.12, -10.43, -10.07, -10.07, -10.07, -9.95, -9.66, -9.66, -9.66, -9.6, -9.6, -9.6, -9.11, -8.84, -9.11, -8.57, -8.57, -7.98, -7.32, -7.32, -6.8, -5.99, -5.81, -5.3, -5.3, -4.34, -4.21, -3.47, -3.47, -2.28, -2.48, -2.48, -1.21, -1.33, -1.29, -1.43, -1.55, -1.55, 0.0, 0.0, 0.0, 0.0, 0.0, 0.0, 0.0, 0.0, 0.0, 0.0, 0.0, 0.0, 0.0, 0.0, 0.0, 0.0, 2.69, 2.54, 3.4, 3.4, 5.69, 5.69, 5.69, 0.0, 0.0, 10.73, 7.59, -0.0, -0.0, -0.0, 0.0, 9.83, 10.73, 11.03, 10.41, 8.85, 8.85, 0.0, -18.78, -24.14, -26.45, 14.54, 14.79, 11.71, 10.73, -5.0, -7.9, -8.22, 0.0, 0.0, 0.0, 0.0, 0.0, 0.0, -10.43, -10.43, -10.13, -10.13, -10.46, -10.12, -10.12, -9.76, -10.07, -10.07, -10.07, -9.66, -9.66, -9.66, -9.22, -9.22, -9.22, -9.22, -8.72, -9.11, -8.57, -8.57, -8.57, -8.22, -7.54, -6.8, -6.8, -5.81, -5.81, -4.96, -5.3, -4.21, -4.21, -4.21, -3.47, -3.36, -2.48, -2.4, -2.4, -2.54, -1.29, -1.43, -1.38, -1.55, -1.55, 0.0, 0.0, 0.0, 0.0, 0.0, 0.0, 0.0, 0.0, 0.0, 0.0, 0.0, 0.0, 0.0, 0.0, 0.0, 0.0, 0.0, 2.54, 3.6, 0.0, 0.0, 0.0, 0.0, 0.0, -0.0, -0.0, -0.0, -0.0, -0.0, 0.0, 0.0, 9.2, 9.3, 6.45, 5.4, -0.0, -14.3, -16.96, -20.6, -28.05, -0.0, 14.88, 12.27, 10.0, 11.18, -11.62, -11.62, -0.0, 0.0, 0.0, 0.0, 0.0, 0.0, -10.43, -10.43, -10.13, -10.13, -9.8, -9.8, -9.8, -9.76, -9.76, -9.76, -9.76, -9.37, -9.66, -9.66, -9.22, -9.22, -9.22, -8.99, -8.99, -8.99, -8.43, -8.43, -8.22, -8.22, -7.54, -7.54, -6.8, -6.6, -5.81, -5.81, -4.81, -5.14, -4.21, -4.21, -4.38, -3.36, -3.36, -3.53, -2.4, -2.54, -2.54, -1.43, -1.38, -1.55, -1.55, -1.55, 0.0, 0.0, 0.0, 0.0, 0.0, 0.0, 0.0, 0.0, 0.0, 0.0, 0.0, 0.0, 0.0, 0.0, 0.0, 0.0, 0.0, 0.0, 0.0, 0.0, 0.0, 0.0, 0.0, 0.0, -0.0, -0.0, -4.6, -0.0, 0.0, -0.0, 4.4, 8.55, 7.59, 5.2, -0.0, -13.86, -15.18, -17.85, -25.57, -27.72, 8.6, 13.26, 10.12, 9.3, -0.0, -0.0, -0.0, 0.0, 0.0, -7.9, -7.9, -7.9, -10.43, -10.43, -10.13, -9.8, -9.8, -9.8, -9.8, -9.46, -9.46, -9.76, -9.76, -9.66, -9.66, -9.66, -9.49, -9.49, -9.49, -8.99, -8.99, -8.99, -8.43, -8.43, -7.82, -7.82, -6.94, -7.54, -6.6, -6.6, -5.63, -5.63, -5.63, -5.14, -5.14, -4.08, -4.38, -3.36, -3.25, -3.53, -2.4, -2.54, -2.54, -2.81, -2.72, -1.38, -1.55, -1.55, -1.5, -1.5, 0.0, 0.0, 0.0, 0.0, 0.0, 0.0, 0.0, 0.0, 0.0, 0.0, 0.0, 0.0, 0.0, 0.0, 0.0, 0.0, 0.0, 0.0, 0.0, 0.0, 0.0, 0.0, 0.0, -0.0, -6.95, 0.0, 0.0, -0.0, 4.2, 4.2, 9.2, 8.22, 0.0, -13.41, -14.75, -16.91, -23.23, -27.72, -14.86, 8.2, 11.38, 9.8, 7.19, -0.0, -4.1, -5.8, -8.85, -8.85, -8.85, -8.85, -9.8, -9.8, -9.48, -9.8, -9.8, -9.8, -9.46, -9.46, -9.46, -9.76, -9.37, -9.66, -9.66, -9.95, -9.49, -9.49, -9.49, -8.99, -8.99, -8.99, -8.43, -8.18, -8.43, -7.82, -6.94, -6.94, -7.32, -6.4, -6.4, -5.63, -5.63, -5.14, -5.14, -4.08, -4.38, -4.24, -3.53, -3.53, -3.41, -2.54, -2.54, -2.54, -2.81, -2.72, -1.55, -1.55, -1.5, -1.5, -1.5, -1.5, -1.64, 0.0, 0.0, 0.0, 0.0, 0.0, 0.0, 0.0, 0.0, 0.0, 0.0, 0.0, 0.0, 0.0, 0.0, 0.0, 0.0, 0.0, 0.0, 0.0, 0.0, 0.0, 0.0, 0.0, 0.0, -0.0, -0.0, -0.0, 10.28, 11.62, 0.0, 0.0, -14.75, -16.54, -22.8, -27.72, -22.35, -8.8, 5.65, 9.17, 8.93, -0.0, -3.25, -4.24, -5.8, -5.8, -5.8, -5.8, -9.48, -9.48, -9.48, -9.48, -9.48, -9.8, -9.46, -9.46, -9.46, -9.76, -9.37, -9.66, -9.66, -9.95, -9.49, -9.49, -9.49, -8.99, -8.99, -8.99, -8.18, -8.18, -8.43, -7.82, -7.59, -6.94, -7.1, -6.4, -6.4, -5.63, -5.99, -5.99, -4.97, -5.33, -4.38, -4.24, -3.53, -3.41, -3.41, -3.73, -2.54, -2.54, -2.54, -2.81, -2.72, -1.38, -1.33, -1.5, -1.5, -1.5, -1.44, 0.0, 0.0, 0.0, 0.0, 0.0, 0.0, 0.0, 0.0, 0.0, 0.0, 0.0, 0.0, 0.0, 0.0, 0.0, 0.0, 0.0, 0.0, 0.0, 0.0, -7.9, -10.28, 0.0, 0.0, -0.0, -0.0, -0.0, 7.27, 10.73, 0.0, -12.96, -14.3, -15.65, -21.01, -27.72, -21.9, -20.56, -18.78, -8.4, -0.0, -0.0, -0.0, -4.1, -5.8, -5.8, -5.8, -5.8, -9.48, -9.48, -9.48, -9.48, -9.48, -9.48, -9.15, -9.46, -9.46, -9.76, -9.37, -9.66, -9.66, -9.22, -9.22, -9.22, -9.22, -8.72, -8.72, -8.72, -8.18, -8.18, -8.18, -7.59, -7.59, -6.73, -7.1, -6.4, -6.4, -6.4, -5.99, -5.81, -4.97, -5.33, -4.24, -4.24, -4.58, -3.41, -3.41, -3.73, -3.73, -2.54, -2.54, -2.45, -2.72, -2.72, -2.62, -1.33, -1.5, -1.44, -1.44, -1.39, -1.58, -1.52, 0.0, 0.0, 0.0, 0.0, 0.0, 0.0, 0.0, 0.0, 0.0, 0.0, 0.0, 0.0, 0.0, 0.0, 0.0, 0.0, 0.0, -2.97, -6.64, 0.0, 0.0, -9.83, -6.95, -0.0, -0.0, -0.0, 0.0, -12.96, -12.39, -12.27, -16.79, -24.29, -23.67, -19.51, -18.39, -20.12, -19.22, -15.59, -11.38, -10.12, -12.96, 0.0, 0.0, 0.0, -9.48, -9.48, -9.48, -9.48, -9.48, -9.48, -9.15, -9.46, -9.46, -9.76, -9.37, -9.66, -9.66, -9.22, -9.22, -9.22, -9.22, -8.72, -8.72, -8.72, -8.18, -8.18, -8.18, -7.59, -7.59, -6.73, -7.1, -6.4, -6.4, -6.4, -5.99, -5.81, -4.97, -5.33, -4.24, -4.24, -4.58, -3.41, -3.41, -3.73, -3.73, -2.54, -2.54, -2.45, -2.72, -2.72, -2.62, -1.33, -1.5, -1.44, -1.44, -1.39, -1.58, -1.52, 0.0, 0.0, 0.0, 0.0, 0.0, 0.0, 0.0, 0.0, 0.0, 0.0, 0.0, 0.0, 0.0, 0.0, 0.0, 0.0, 0.0, -2.97, -6.64, 0.0, 0.0, -9.83, -0.0, -0.0, -0.0, -0.0, 0.0, -12.52, -9.48, -10.12, -9.66, -12.07, -18.95, -16.81, -14.86, -16.81, -17.99, -15.99, -12.33, -8.68, -3.14, 0.0, 0.0, 0.0]}]